Another Hard Day at the Office Weather Stats

 
 
 

High monthly outside Temperature, 22.8 , C
Low monthly outside Temperature, -1.0 , C
High yearly outside Temperature, 30.9 , C
Low yearly outside Temperature, -2.2 , C

Low monthly barometer, 1001.1 , mb
High monthly barometer, 1028.0 , mb
Low yearly barometer, 975.0 , mb
High yearly barometer 1041.1 , mb

High wind speed, 25.0 , mph
Time of High wind speed, 21:37 , mph
High monthly wind speed, 47.0 , mph
High yearly wind speed, 55.0 , mph

 

 




3126
                    Temp     Hi    Low   Out    Dew  Wind  Wind   Wind    Hi    Hi   Wind   Heat    THW                Rain    Heat    Cool    In     In    In     In     In   In Air  Wind  Wind    ISS   Arc.
  Date    Time     Out   Temp   Temp   Hum    Pt. Speed   Dir    Run Speed   Dir  Chill  Index  Index   Bar    Rain  Rate    D-D     D-D    Temp   Hum    Dew   Heat    EMC Density  Samp   Tx   Recept  Int.
---------------------------------------------------------------------------------------------------------------------------------------------------------------------------------------------------------------
26/09/16   0:05   14.7   14.7   14.7    78   10.9   4.0   WNW   0.33   7.0     W   14.7   14.5   14.5  1021.0  0.00  0.00   0.013   0.000   24.5    50   13.4   24.5   9.23  .0735    113    1     99.1    5 
26/09/16   0:10   14.6   14.7   14.6    78   10.8   3.0   WNW   0.25   6.0     W   14.6   14.4   14.4  1021.0  0.00  0.00   0.013   0.000   24.5    50   13.4   24.5   9.23  .0735     53    1     46.5    5 
26/09/16   0:15   14.6   14.6   14.6    78   10.8   3.0   WNW   0.25   5.0    NW   14.6   14.4   14.4  1021.1  0.00  0.00   0.013   0.000   24.4    50   13.3   24.4   9.23  .0735    117    1    100.0    5 
26/09/16   0:20   14.5   14.6   14.5    78   10.7   3.0   WNW   0.25   5.0    NW   14.5   14.3   14.3  1021.1  0.00  0.00   0.013   0.000   24.4    50   13.3   24.4   9.23  .0736    117    1    100.0    5 
26/09/16   0:25   14.4   14.5   14.4    78   10.7   3.0    NW   0.25   5.0    NW   14.4   14.3   14.3  1021.1  0.00  0.00   0.014   0.000   24.3    50   13.2   24.3   9.23  .0736    117    1    100.0    5 
26/09/16   0:30   14.3   14.4   14.3    78   10.5   3.0    NW   0.25   5.0    NW   14.3   14.2   14.2  1021.2  0.00  0.00   0.014   0.000   24.3    50   13.2   24.3   9.24  .0736    114    1    100.0    5 
26/09/16   0:35   14.3   14.3   14.3    79   10.7   3.0    NW   0.25   4.0    NW   14.3   14.1   14.1  1021.2  0.00  0.00   0.014   0.000   24.2    50   13.1   24.2   9.24  .0736    116    1    100.0    5 
26/09/16   0:40   14.2   14.3   14.2    78   10.4   3.0    NW   0.25   4.0    NW   14.2   14.0   14.0  1021.2  0.00  0.00   0.014   0.000   24.1    50   13.0   24.2   9.24  .0737    117    1    100.0    5 
26/09/16   0:45   14.1   14.2   14.1    79   10.5   3.0    NW   0.25   4.0    NW   14.1   13.9   13.9  1021.2  0.00  0.00   0.015   0.000   24.1    50   13.0   24.1   9.24  .0737    118    1    100.0    5 
26/09/16   0:50   14.0   14.1   14.0    79   10.4   2.0    NW   0.17   3.0    NW   14.0   13.8   13.8  1021.2  0.00  0.00   0.015   0.000   24.1    50   13.0   24.1   9.24  .0737    117    1    100.0    5 
26/09/16   0:55   13.9   13.9   13.9    79   10.3   3.0    NW   0.25   4.0    NW   13.9   13.7   13.7  1021.3  0.00  0.00   0.015   0.000   24.0    50   12.9   24.1   9.25  .0737    116    1    100.0    5 
26/09/16   1:00   13.8   13.9   13.8    79   10.3   3.0   WNW   0.25   5.0   WNW   13.8   13.7   13.7  1021.3  0.00  0.00   0.016   0.000   23.9    50   12.9   24.0   9.25  .0737    116    1    100.0    5 
26/09/16   1:05   13.8   13.8   13.8    80   10.4   3.0    NW   0.25   4.0    NW   13.8   13.6   13.6  1021.3  0.00  0.00   0.016   0.000   23.9    50   12.8   23.9   9.25  .0737    117    1    100.0    5 
26/09/16   1:10   13.7   13.8   13.7    80   10.3   3.0    NW   0.25   4.0    NW   13.7   13.6   13.6  1021.1  0.00  0.00   0.016   0.000   23.8    50   12.8   23.9   9.25  .0737    117    1    100.0    5 
26/09/16   1:15   13.7   13.7   13.7    80   10.3   3.0    NW   0.25   4.0    NW   13.7   13.5   13.5  1021.2  0.00  0.00   0.016   0.000   23.8    50   12.8   23.9   9.25  .0737    115    1    100.0    5 
26/09/16   1:20   13.6   13.7   13.6    80   10.2   3.0    NW   0.25   4.0    NW   13.6   13.4   13.4  1021.2  0.00  0.00   0.016   0.000   23.8    50   12.7   23.8   9.25  .0738    117    1    100.0    5 
26/09/16   1:25   13.6   13.6   13.6    81   10.4   3.0    NW   0.25   5.0    NW   13.6   13.4   13.4  1021.3  0.00  0.00   0.016   0.000   23.7    50   12.7   23.7   9.25  .0738    117    1    100.0    5 
26/09/16   1:30   13.6   13.6   13.6    81   10.4   3.0    NW   0.25   6.0   WNW   13.6   13.4   13.4  1021.4  0.00  0.00   0.016   0.000   23.7    50   12.6   23.6   9.25  .0738    117    1    100.0    5 
26/09/16   1:35   13.6   13.6   13.6    81   10.4   2.0    NW   0.17   4.0    NW   13.6   13.4   13.4  1021.4  0.00  0.00   0.016   0.000   23.6    50   12.6   23.6   9.25  .0738    116    1    100.0    5 
26/09/16   1:40   13.7   13.7   13.6    81   10.5   0.0    NW   0.00   3.0    NW   13.7   13.5   13.5  1021.4  0.00  0.00   0.016   0.000   23.6    50   12.5   23.5   9.25  .0738    117    1    100.0    5 
26/09/16   1:45   13.6   13.7   13.6    81   10.4   2.0    NW   0.17   3.0    NW   13.6   13.4   13.4  1021.4  0.00  0.00   0.016   0.000   23.6    51   12.8   23.6   9.36  .0738    116    1    100.0    5 
26/09/16   1:50   13.6   13.6   13.6    81   10.4   2.0    NW   0.17   3.0    NW   13.6   13.4   13.4  1021.4  0.00  0.00   0.017   0.000   23.6    51   12.8   23.6   9.36  .0738    118    1    100.0    5 
26/09/16   1:55   13.5   13.6   13.5    81   10.3   3.0     N   0.25   5.0     N   13.5   13.3   13.3  1021.3  0.00  0.00   0.017   0.000   23.5    51   12.8   23.4   9.36  .0738    117    1    100.0    5 
26/09/16   2:00   13.4   13.5   13.4    81   10.2   3.0   NNE   0.25   5.0   NNE   13.4   13.2   13.2  1021.3  0.00  0.00   0.017   0.000   23.5    51   12.8   23.4   9.36  .0738    117    1    100.0    5 
26/09/16   2:05   13.3   13.4   13.3    82   10.3   3.0   NNE   0.25   4.0   NNE   13.3   13.2   13.2  1021.2  0.00  0.00   0.017   0.000   23.5    51   12.8   23.4   9.36  .0738    116    1    100.0    5 
26/09/16   2:10   13.3   13.3   13.3    82   10.3   1.0   NNE   0.08   3.0   NNE   13.3   13.2   13.2  1021.3  0.00  0.00   0.018   0.000   23.4    51   12.7   23.4   9.37  .0738    117    1    100.0    5 
26/09/16   2:15   13.2   13.3   13.2    82   10.2   0.0   ---   0.00   0.0   ---   13.2   13.1   13.1  1021.2  0.00  0.00   0.018   0.000   23.4    51   12.7   23.3   9.37  .0739    117    1    100.0    5 
26/09/16   2:20   13.3   13.3   13.2    83   10.5   1.0   WNW   0.08   6.0   WNW   13.3   13.2   13.2  1021.4  0.00  0.00   0.018   0.000   23.4    51   12.7   23.3   9.37  .0739    117    1    100.0    5 
26/09/16   2:25   13.3   13.3   13.3    83   10.5   2.0    NW   0.17   4.0   WNW   13.3   13.2   13.2  1021.4  0.00  0.00   0.017   0.000   23.3    51   12.6   23.2   9.37  .0739    117    1    100.0    5 
26/09/16   2:30   13.4   13.4   13.3    83   10.6   0.0    NW   0.00   3.0    NW   13.4   13.3   13.3  1021.5  0.00  0.00   0.017   0.000   23.3    52   12.9   23.3   9.57  .0739    116    1    100.0    5 
26/09/16   2:35   13.5   13.5   13.4    84   10.8   0.0   ---   0.00   0.0   ---   13.5   13.4   13.4  1021.4  0.00  0.00   0.017   0.000   23.3    52   12.9   23.3   9.57  .0739    117    1    100.0    5 
26/09/16   2:40   13.5   13.5   13.4    84   10.8   0.0   ---   0.00   0.0   ---   13.5   13.4   13.4  1021.4  0.00  0.00   0.017   0.000   23.3    52   12.9   23.3   9.57  .0739    113    1     99.1    5 
26/09/16   2:45   13.6   13.6   13.5    84   10.9   0.0   ---   0.00   0.0   ---   13.6   13.5   13.5  1021.4  0.00  0.00   0.017   0.000   23.3    52   12.9   23.3   9.57  .0739    117    1    100.0    5 
26/09/16   2:50   13.6   13.6   13.6    85   11.1   0.0   ---   0.00   0.0   ---   13.6   13.5   13.5  1021.3  0.00  0.00   0.017   0.000   23.3    52   12.9   23.2   9.57  .0739    118    1    100.0    5 
26/09/16   2:55   13.6   13.6   13.6    85   11.1   0.0   ---   0.00   0.0   ---   13.6   13.6   13.6  1021.2  0.00  0.00   0.016   0.000   23.3    52   12.9   23.2   9.57  .0739    116    1    100.0    5 
26/09/16   3:00   13.6   13.6   13.6    85   11.1   0.0   ---   0.00   0.0   ---   13.6   13.5   13.5  1021.3  0.00  0.00   0.017   0.000   23.3    52   12.9   23.2   9.57  .0739    113    1     99.1    5 
26/09/16   3:05   13.6   13.6   13.6    85   11.1   0.0   ---   0.00   0.0   ---   13.6   13.5   13.5  1021.3  0.00  0.00   0.017   0.000   23.3    52   12.9   23.2   9.57  .0739    117    1    100.0    5 
26/09/16   3:10   13.6   13.6   13.6    86   11.3   0.0   ---   0.00   0.0   ---   13.6   13.5   13.5  1021.2  0.00  0.00   0.017   0.000   23.2    52   12.8   23.2   9.57  .0739    117    1    100.0    5 
26/09/16   3:15   13.5   13.6   13.5    86   11.2   0.0   ---   0.00   0.0   ---   13.5   13.4   13.4  1021.2  0.00  0.00   0.017   0.000   23.2    53   13.1   23.2   9.70  .0739    116    1    100.0    5 
26/09/16   3:20   13.4   13.5   13.4    86   11.1   0.0   ---   0.00   0.0   ---   13.4   13.4   13.4  1021.2  0.00  0.00   0.017   0.000   23.2    53   13.1   23.2   9.70  .0739    117    1    100.0    5 
26/09/16   3:25   13.4   13.4   13.4    87   11.3   0.0   ---   0.00   0.0   ---   13.4   13.4   13.4  1021.1  0.00  0.00   0.017   0.000   23.2    53   13.1   23.2   9.70  .0739    116    1    100.0    5 
26/09/16   3:30   13.3   13.4   13.3    87   11.2   0.0   ---   0.00   0.0   ---   13.3   13.3   13.3  1021.2  0.00  0.00   0.018   0.000   23.2    53   13.1   23.1   9.70  .0739    117    1    100.0    5 
26/09/16   3:35   13.2   13.3   13.2    87   11.0   0.0   ---   0.00   0.0   ---   13.2   13.2   13.2  1021.1  0.00  0.00   0.018   0.000   23.2    53   13.1   23.1   9.70  .0739    116    1    100.0    5 
26/09/16   3:40   13.1   13.2   13.1    88   11.2   0.0   ---   0.00   0.0   ---   13.1   13.1   13.1  1021.1  0.00  0.00   0.018   0.000   23.2    53   13.1   23.1   9.70  .0739    117    1    100.0    5 
26/09/16   3:45   13.1   13.1   13.1    88   11.1   0.0   ---   0.00   0.0   ---   13.1   13.1   13.1  1021.0  0.00  0.00   0.018   0.000   23.2    53   13.1   23.1   9.70  .0739    116    1    100.0    5 
26/09/16   3:50   13.1   13.1   13.1    88   11.1   0.0   ---   0.00   0.0   ---   13.1   13.1   13.1  1021.0  0.00  0.00   0.018   0.000   23.1    53   13.0   23.1   9.71  .0739    116    1    100.0    5 
26/09/16   3:55   13.0   13.1   13.0    89   11.2   0.0   ---   0.00   0.0   ---   13.0   13.1   13.1  1020.9  0.00  0.00   0.019   0.000   23.1    53   13.0   23.1   9.71  .0739    117    1    100.0    5 
26/09/16   4:00   13.0   13.0   13.0    89   11.2   0.0   ---   0.00   0.0   ---   13.0   13.1   13.1  1021.0  0.00  0.00   0.019   0.000   23.1    53   13.0   23.0   9.71  .0739    117    1    100.0    5 
26/09/16   4:05   13.0   13.0   13.0    89   11.2   0.0   ---   0.00   0.0   ---   13.0   13.1   13.1  1021.0  0.00  0.00   0.019   0.000   23.1    53   13.0   23.0   9.71  .0739    117    1    100.0    5 
26/09/16   4:10   13.0   13.0   13.0    89   11.2   3.0    NW   0.25   5.0     N   13.0   13.1   13.1  1021.0  0.00  0.00   0.019   0.000   23.1    53   13.0   23.0   9.71  .0739    117    1    100.0    5 
26/09/16   4:15   13.0   13.0   12.9    89   11.2   4.0     N   0.33   5.0     N   12.8   13.1   12.9  1021.1  0.00  0.00   0.019   0.000   23.0    53   12.9   22.9   9.71  .0739    116    1    100.0    5 
26/09/16   4:20   12.9   12.9   12.9    89   11.2   4.0     N   0.33   5.0     N   12.8   13.0   12.8  1021.1  0.00  0.00   0.019   0.000   22.9    53   12.9   22.9   9.72  .0739    117    1    100.0    5 
26/09/16   4:25   12.9   12.9   12.9    89   11.1   4.0   NNE   0.33   6.0   NNE   12.7   12.9   12.7  1021.1  0.00  0.00   0.019   0.000   22.9    53   12.9   22.9   9.72  .0739    117    1    100.0    5 
26/09/16   4:30   12.8   12.9   12.8    90   11.2   4.0   NNE   0.33   6.0   NNE   12.6   12.9   12.7  1021.1  0.00  0.00   0.019   0.000   22.9    53   12.8   22.8   9.72  .0740    117    1    100.0    5 
26/09/16   4:35   12.8   12.8   12.8    90   11.2   4.0     N   0.33   6.0     N   12.6   12.8   12.6  1021.0  0.00  0.00   0.019   0.000   22.8    53   12.7   22.7   9.73  .0740    116    1    100.0    5 
26/09/16   4:40   12.7   12.8   12.7    90   11.1   5.0     N   0.42   7.0   NNW   12.2   12.8   12.3  1021.0  0.00  0.00   0.019   0.000   22.8    53   12.7   22.7   9.73  .0740    114    1    100.0    5 
26/09/16   4:45   12.7   12.7   12.7    90   11.1   4.0   NNE   0.33   7.0   NNE   12.4   12.7   12.5  1021.0  0.00  0.00   0.020   0.000   22.7    53   12.6   22.6   9.73  .0740    114    1    100.0    5 
26/09/16   4:50   12.6   12.7   12.6    90   11.0   6.0   NNE   0.50   9.0     N   11.8   12.7   11.8  1021.1  0.00  0.00   0.020   0.000   22.7    53   12.6   22.5   9.74  .0740    115    1    100.0    5 
26/09/16   4:55   12.6   12.6   12.6    90   11.0   5.0   NNE   0.42   9.0     N   12.0   12.6   12.1  1021.1  0.00  0.00   0.020   0.000   22.6    53   12.5   22.4   9.74  .0741    117    1    100.0    5 
26/09/16   5:00   12.5   12.6   12.5    90   10.9   4.0   NNE   0.33   6.0   NNE   12.3   12.6   12.3  1021.2  0.00  0.00   0.020   0.000   22.6    53   12.5   22.3   9.75  .0741    117    1    100.0    5 
26/09/16   5:05   12.5   12.5   12.5    90   10.9   4.0   NNE   0.33   5.0   NNE   12.3   12.6   12.3  1021.3  0.00  0.00   0.020   0.000   22.5    53   12.4   22.3   9.75  .0741    117    1    100.0    5 
26/09/16   5:10   12.5   12.5   12.5    91   11.1   4.0   NNE   0.33   6.0   NNE   12.3   12.6   12.3  1021.3  0.00  0.00   0.020   0.000   22.4    53   12.4   22.2   9.75  .0741    117    1    100.0    5 
26/09/16   5:15   12.5   12.5   12.4    91   11.1   4.0   NNE   0.33   6.0   NNE   12.3   12.6   12.3  1021.2  0.00  0.00   0.020   0.000   22.4    53   12.3   22.1   9.76  .0741    117    1    100.0    5 
26/09/16   5:20   12.5   12.5   12.5    91   11.1   4.0   NNE   0.33   5.0   NNE   12.3   12.6   12.3  1021.2  0.00  0.00   0.020   0.000   22.4    53   12.3   22.1   9.76  .0741    117    1    100.0    5 
26/09/16   5:25   12.5   12.5   12.5    91   11.1   4.0   NNE   0.33   6.0   NNE   12.3   12.6   12.3  1021.1  0.00  0.00   0.020   0.000   22.3    53   12.3   22.0   9.76  .0741    116    1    100.0    5 
26/09/16   5:30   12.6   12.6   12.5    91   11.1   3.0   NNE   0.25   6.0   NNE   12.6   12.6   12.6  1021.2  0.00  0.00   0.020   0.000   22.3    53   12.2   21.9   9.77  .0742    117    1    100.0    5 
26/09/16   5:35   12.6   12.6   12.6    91   11.1   3.0   NNE   0.25   4.0   NNE   12.6   12.6   12.6  1021.2  0.00  0.00   0.020   0.000   22.2    53   12.2   21.8   9.77  .0742    117    1    100.0    5 
26/09/16   5:40   12.6   12.6   12.6    91   11.1   3.0   NNE   0.25   4.0   NNE   12.6   12.6   12.6  1021.1  0.00  0.00   0.020   0.000   22.2    53   12.1   21.8   9.77  .0742    117    1    100.0    5 
26/09/16   5:45   12.6   12.6   12.6    91   11.1   1.0   NNE   0.08   3.0   NNE   12.6   12.6   12.6  1021.2  0.00  0.00   0.020   0.000   22.2    54   12.4   21.8   9.91  .0742    117    1    100.0    5 
26/09/16   5:50   12.6   12.6   12.6    91   11.1   0.0   ---   0.00   0.0   ---   12.6   12.6   12.6  1021.1  0.00  0.00   0.020   0.000   22.1    54   12.4   21.7   9.91  .0742    117    1    100.0    5 
26/09/16   5:55   12.6   12.6   12.6    91   11.1   0.0   NNE   0.00   3.0   NNE   12.6   12.6   12.6  1021.1  0.00  0.00   0.020   0.000   22.1    54   12.4   21.7   9.91  .0742    116    1    100.0    5 
26/09/16   6:00   12.6   12.6   12.6    91   11.1   2.0   NNE   0.17   4.0   NNE   12.6   12.6   12.6  1021.0  0.00  0.00   0.020   0.000   22.1    54   12.4   21.7   9.91  .0742    117    1    100.0    5 
26/09/16   6:05   12.6   12.6   12.6    91   11.1   2.0   NNE   0.17   4.0   NNE   12.6   12.6   12.6  1021.0  0.00  0.00   0.020   0.000   22.1    54   12.4   21.7   9.91  .0742    117    1    100.0    5 
26/09/16   6:10   12.6   12.6   12.6    91   11.1   0.0    NE   0.00   1.0    NE   12.6   12.6   12.6  1021.0  0.00  0.00   0.020   0.000   22.1    54   12.3   21.7   9.92  .0742    116    1    100.0    5 
26/09/16   6:15   12.6   12.6   12.6    91   11.1   1.0    NE   0.08   3.0    NE   12.6   12.6   12.6  1021.0  0.00  0.00   0.020   0.000   22.1    55   12.6   21.7  10.12  .0742    117    1    100.0    5 
26/09/16   6:20   12.5   12.6   12.5    91   11.1   2.0    NE   0.17   3.0    NE   12.5   12.6   12.6  1021.0  0.00  0.00   0.020   0.000   22.1    55   12.6   21.7  10.12  .0742    117    1    100.0    5 
26/09/16   6:25   12.5   12.6   12.5    91   11.1   2.0    NE   0.17   4.0    NE   12.5   12.6   12.6  1021.0  0.00  0.00   0.020   0.000   22.1    55   12.6   21.7  10.12  .0742    117    1    100.0    5 
26/09/16   6:30   12.5   12.5   12.5    91   11.1   3.0    NE   0.25   4.0    NE   12.5   12.6   12.6  1021.0  0.00  0.00   0.020   0.000   22.1    55   12.6   21.7  10.12  .0742    116    1    100.0    5 
26/09/16   6:35   12.5   12.5   12.5    91   11.1   1.0    NE   0.08   3.0    NE   12.5   12.6   12.6  1021.0  0.00  0.00   0.020   0.000   22.1    55   12.6   21.7  10.12  .0742    116    1    100.0    5 
26/09/16   6:40   12.5   12.5   12.5    91   11.1   2.0    NE   0.17   4.0    NE   12.5   12.6   12.6  1021.0  0.00  0.00   0.020   0.000   22.1    55   12.6   21.7  10.12  .0742    116    1    100.0    5 
26/09/16   6:45   12.5   12.5   12.5    91   11.1   2.0    NE   0.17   4.0    NE   12.5   12.6   12.6  1021.1  0.00  0.00   0.020   0.000   22.0    55   12.5   21.6  10.12  .0742    116    1    100.0    5 
26/09/16   6:50   12.5   12.5   12.5    92   11.2   2.0    NE   0.17   3.0    NE   12.5   12.6   12.6  1021.1  0.00  0.00   0.020   0.000   22.0    55   12.5   21.6  10.12  .0742    117    1    100.0    5 
26/09/16   6:55   12.5   12.5   12.5    92   11.2   1.0    NE   0.08   3.0    NE   12.5   12.6   12.6  1021.0  0.00  0.00   0.020   0.000   22.0    55   12.5   21.6  10.12  .0742    117    1    100.0    5 
26/09/16   7:00   12.6   12.6   12.5    92   11.3   1.0    NE   0.08   3.0    NE   12.6   12.6   12.6  1021.0  0.00  0.00   0.020   0.000   22.0    55   12.5   21.6  10.12  .0742    117    1    100.0    5 
26/09/16   7:05   12.6   12.6   12.5    92   11.3   2.0    NE   0.17   4.0    NE   12.6   12.6   12.6  1021.0  0.00  0.00   0.020   0.000   21.9    55   12.5   21.6  10.12  .0742    118    1    100.0    5 
26/09/16   7:10   12.6   12.6   12.6    92   11.3   2.0    NE   0.17   4.0    NE   12.6   12.6   12.6  1020.9  0.00  0.00   0.020   0.000   21.9    55   12.5   21.6  10.12  .0742    116    1    100.0    5 
26/09/16   7:15   12.6   12.6   12.6    92   11.3   1.0    NE   0.08   3.0    NE   12.6   12.7   12.7  1021.0  0.00  0.00   0.020   0.000   21.9    55   12.5   21.6  10.12  .0742    116    1    100.0    5 
26/09/16   7:20   12.7   12.7   12.6    92   11.4   0.0    NE   0.00   3.0    NE   12.7   12.7   12.7  1021.0  0.00  0.00   0.020   0.000   22.0    55   12.5   21.6  10.12  .0742    116    1    100.0    5 
26/09/16   7:25   12.7   12.7   12.7    92   11.4   1.0   WNW   0.08   3.0   WNW   12.7   12.7   12.7  1021.1  0.00  0.00   0.020   0.000   21.9    55   12.5   21.6  10.12  .0742    116    1    100.0    5 
26/09/16   7:30   12.7   12.7   12.7    92   11.5   0.0   ---   0.00   0.0   ---   12.7   12.8   12.8  1021.1  0.00  0.00   0.019   0.000   21.9    55   12.5   21.6  10.12  .0742    114    1    100.0    5 
26/09/16   7:35   12.8   12.8   12.7    92   11.5   0.0   WNW   0.00   2.0   WNW   12.8   12.8   12.8  1021.1  0.00  0.00   0.019   0.000   21.9    55   12.5   21.6  10.12  .0742    117    1    100.0    5 
26/09/16   7:40   12.9   12.9   12.8    92   11.7   1.0    NW   0.08   4.0    NW   12.9   13.0   13.0  1021.0  0.00  0.00   0.019   0.000   21.9    55   12.5   21.6  10.12  .0742    117    1    100.0    5 
26/09/16   7:45   13.1   13.1   12.9    92   11.8   2.0    NE   0.17   3.0   ENE   13.1   13.1   13.1  1021.0  0.00  0.00   0.018   0.000   21.9    56   12.8   21.6  10.32  .0742    116    1    100.0    5 
26/09/16   7:50   13.2   13.2   13.1    92   11.9   1.0    NE   0.08   3.0    NE   13.2   13.2   13.2  1021.0  0.00  0.00   0.018   0.000   21.9    56   12.8   21.6  10.32  .0742    116    1    100.0    5 
26/09/16   7:55   13.3   13.3   13.2    92   12.0   3.0   ENE   0.25   5.0   ENE   13.3   13.3   13.3  1021.0  0.00  0.00   0.018   0.000   21.9    56   12.8   21.6  10.32  .0742    117    1    100.0    5 
26/09/16   8:00   13.3   13.3   13.2    92   12.0   2.0   ENE   0.17   5.0   ENE   13.3   13.3   13.3  1021.0  0.00  0.00   0.018   0.000   21.9    56   12.8   21.6  10.32  .0742    116    1    100.0    5 
26/09/16   8:05   13.3   13.3   13.3    92   12.1   3.0     E   0.25   6.0     E   13.3   13.4   13.4  1021.1  0.00  0.00   0.017   0.000   21.9    56   12.8   21.6  10.32  .0742    115    1    100.0    5 
26/09/16   8:10   13.4   13.4   13.3    92   12.1   4.0   ENE   0.33   7.0    NE   13.3   13.4   13.3  1021.1  0.00  0.00   0.017   0.000   21.9    56   12.8   21.6  10.32  .0742    116    1    100.0    5 
26/09/16   8:15   13.4   13.4   13.4    92   12.2   1.0   ENE   0.08   3.0   ENE   13.4   13.5   13.5  1021.1  0.00  0.00   0.017   0.000   21.9    56   12.8   21.6  10.32  .0742    113    1     99.1    5 
26/09/16   8:20   13.5   13.5   13.4    92   12.2   2.0   ENE   0.17   5.0   ENE   13.5   13.6   13.6  1021.2  0.00  0.00   0.017   0.000   21.9    56   12.8   21.6  10.32  .0742    115    1    100.0    5 
26/09/16   8:25   13.6   13.6   13.5    93   12.5   1.0     E   0.08   5.0     E   13.6   13.7   13.7  1021.2  0.00  0.00   0.016   0.000   21.9    56   12.8   21.6  10.32  .0742    117    1    100.0    5 
26/09/16   8:30   13.8   13.8   13.6    93   12.7   1.0     E   0.08   3.0     E   13.8   13.9   13.9  1021.2  0.00  0.00   0.016   0.000   21.9    57   13.0   21.6  10.49  .0742    115    1    100.0    5 
26/09/16   8:35   13.9   13.9   13.8    93   12.8   0.0   ---   0.00   0.0   ---   13.9   14.0   14.0  1021.2  0.00  0.00   0.015   0.000   22.0    57   13.1   21.7  10.49  .0742    117    1    100.0    5 
26/09/16   8:40   14.0   14.0   13.9    93   12.9   1.0     S   0.08   7.0     S   14.0   14.1   14.1  1021.2  0.00  0.00   0.015   0.000   22.0    57   13.1   21.7  10.49  .0742    117    1    100.0    5 
26/09/16   8:45   14.2   14.2   14.0    92   12.9   7.0   SSW   0.58  10.0   SSW   13.5   14.3   13.6  1021.2  0.00  0.00   0.014   0.000   22.1    57   13.1   21.8  10.48  .0742    116    1    100.0    5 
26/09/16   8:50   14.8   14.8   14.2    88   12.9   8.0   SSW   0.67  12.0   SSW   13.8   14.9   13.9  1021.2  0.00  0.00   0.012   0.000   22.1    56   12.9   21.7  10.32  .0742    117    1    100.0    5 
26/09/16   8:55   15.4   15.4   14.9    86   13.1  10.0   SSW   0.83  13.0   SSW   13.8   15.5   13.8  1021.2  0.00  0.00   0.010   0.000   22.1    56   12.9   21.8  10.31  .0742    117    1    100.0    5 
26/09/16   9:00   15.8   15.8   15.4    84   13.1  10.0   SSW   0.83  13.0    SW   14.1   15.8   14.2  1021.3  0.00  0.00   0.009   0.000   22.1    56   12.9   21.8  10.31  .0742    116    1    100.0    5 
26/09/16   9:05   16.1   16.1   15.8    84   13.4  11.0     S   0.92  14.0   SSW   14.2   16.2   14.3  1021.3  0.00  0.00   0.008   0.000   22.2    56   13.0   21.9  10.31  .0741    116    1    100.0    5 
26/09/16   9:10   16.2   16.2   16.1    82   13.1  11.0     S   0.92  15.0     S   14.2   16.2   14.3  1021.2  0.00  0.00   0.008   0.000   22.2    56   13.0   22.0  10.31  .0741    115    1    100.0    5 
26/09/16   9:15   16.2   16.2   16.2    81   13.0  12.0     S   1.00  18.0     S   13.9   16.3   14.0  1021.2  0.00  0.00   0.007   0.000   22.2    56   13.0   22.0  10.31  .0741    117    1    100.0    5 
26/09/16   9:20   16.3   16.3   16.2    81   13.1  11.0     S   0.92  17.0     S   14.4   16.4   14.4  1021.3  0.00  0.00   0.007   0.000   22.2    56   13.0   22.0  10.31  .0741    114    1    100.0    5 
26/09/16   9:25   16.3   16.3   16.3    81   13.1  11.0   SSW   0.92  16.0   SSW   14.4   16.4   14.4  1021.3  0.00  0.00   0.007   0.000   22.2    56   13.0   22.0  10.31  .0741    117    1    100.0    5 
26/09/16   9:30   16.4   16.4   16.3    80   12.9  11.0   SSW   0.92  15.0   SSW   14.5   16.4   14.6  1021.4  0.00  0.00   0.007   0.000   22.2    56   13.0   22.0  10.31  .0741    116    1    100.0    5 
26/09/16   9:35   16.4   16.4   16.4    81   13.2  11.0   SSW   0.92  15.0   SSW   14.6   16.5   14.6  1021.4  0.00  0.00   0.007   0.000   22.2    56   13.0   22.0  10.31  .0741    117    1    100.0    5 
26/09/16   9:40   16.4   16.4   16.4    79   12.7  12.0     S   1.00  16.0     S   14.2   16.4   14.2  1021.4  0.00  0.00   0.007   0.000   22.2    56   13.0   22.0  10.31  .0741    116    1    100.0    5 
26/09/16   9:45   16.5   16.5   16.3    81   13.2  13.0     S   1.08  17.0     S   14.0   16.6   14.1  1021.5  0.00  0.00   0.006   0.000   22.2    56   13.0   22.0  10.31  .0741    117    1    100.0    5 
26/09/16   9:50   16.3   16.5   16.3    80   12.8  18.0   SSW   1.50  23.0   SSW   12.8   16.3   12.9  1021.4  0.00  0.00   0.007   0.000   22.3    56   13.1   22.1  10.31  .0741    116    1    100.0    5 
26/09/16   9:55   15.6   16.3   15.6    81   12.4  15.0   SSW   1.25  22.0    SW   12.6   15.6   12.5  1021.4  0.00  0.00   0.009   0.000   22.3    56   13.1   22.1  10.31  .0741    117    1    100.0    5 
26/09/16  10:00   15.7   15.7   15.6    80   12.2  14.0     S   1.17  17.0     S   12.8   15.6   12.8  1021.4  0.00  0.00   0.009   0.000   22.3    56   13.1   22.1  10.31  .0741    117    1    100.0    5 
26/09/16  10:05   15.8   15.8   15.7    79   12.1  11.0     S   0.92  15.0     S   13.8   15.7   13.7  1021.4  0.00  0.00   0.009   0.000   22.3    56   13.1   22.1  10.31  .0741    117    1    100.0    5 
26/09/16  10:10   16.1   16.1   15.8    80   12.6  11.0   SSW   0.92  14.0   SSW   14.1   16.1   14.1  1021.4  0.00  0.00   0.008   0.000   22.3    56   13.1   22.1  10.31  .0741    115    1    100.0    5 
26/09/16  10:15   16.3   16.3   16.1    80   12.8  12.0   SSW   1.00  18.0   SSW   14.0   16.3   14.1  1021.4  0.00  0.00   0.007   0.000   22.3    56   13.1   22.1  10.31  .0741    118    1    100.0    5 
26/09/16  10:20   16.6   16.6   16.3    78   12.7  15.0     S   1.25  19.0     S   13.7   16.6   13.7  1021.4  0.00  0.00   0.006   0.000   22.3    56   13.1   22.1  10.31  .0741    117    1    100.0    5 
26/09/16  10:25   16.7   16.7   16.6    78   12.9  15.0   SSW   1.25  19.0   SSW   13.8   16.7   13.8  1021.5  0.00  0.00   0.006   0.000   22.3    56   13.1   22.1  10.31  .0741    116    1    100.0    5 
26/09/16  10:30   17.0   17.0   16.8    77   12.9  15.0   SSW   1.25  19.0     S   14.2   17.0   14.2  1021.5  0.00  0.00   0.005   0.000   22.3    56   13.1   22.2  10.31  .0741    115    1    100.0    5 
26/09/16  10:35   16.9   17.0   16.9    78   13.0  16.0     S   1.33  20.0     S   13.8   16.9   13.9  1021.4  0.00  0.00   0.005   0.000   22.3    56   13.1   22.2  10.31  .0741    117    1    100.0    5 
26/09/16  10:40   16.9   16.9   16.9    78   13.0  15.0     S   1.25  19.0   SSW   14.1   16.9   14.1  1021.3  0.00  0.00   0.005   0.000   22.4    57   13.5   22.3  10.46  .0741    116    1    100.0    5 
26/09/16  10:45   16.8   16.9   16.8    78   12.9  13.0   SSW   1.08  17.0   SSW   14.3   16.8   14.4  1021.4  0.00  0.00   0.005   0.000   22.4    57   13.5   22.3  10.46  .0741    117    1    100.0    5 
26/09/16  10:50   16.7   16.8   16.7    77   12.7  14.0   SSW   1.17  18.0   SSW   14.1   16.7   14.1  1021.4  0.00  0.00   0.006   0.000   22.4    56   13.2   22.3  10.30  .0741    116    1    100.0    5 
26/09/16  10:55   16.7   16.7   16.7    77   12.6  13.0   SSW   1.08  17.0   SSW   14.2   16.7   14.2  1021.4  0.00  0.00   0.006   0.000   22.5    56   13.3   22.4  10.30  .0741    116    1    100.0    5 
26/09/16  11:00   16.7   16.7   16.7    79   13.1  15.0   SSW   1.25  19.0   SSW   13.8   16.8   13.9  1021.4  0.00  0.00   0.006   0.000   22.5    56   13.3   22.4  10.30  .0741    116    1    100.0    5 
26/09/16  11:05   16.7   16.8   16.7    78   12.8  15.0   SSW   1.25  20.0   SSW   13.8   16.7   13.8  1021.3  0.00  0.00   0.006   0.000   22.6    56   13.3   22.5  10.30  .0740    117    1    100.0    5 
26/09/16  11:10   16.6   16.7   16.6    78   12.8  15.0   SSW   1.25  20.0   SSW   13.7   16.6   13.7  1021.3  0.00  0.00   0.006   0.000   22.6    56   13.4   22.6  10.30  .0740    116    1    100.0    5 
26/09/16  11:15   16.7   16.7   16.6    77   12.6  15.0   SSW   1.25  18.0   SSW   13.8   16.7   13.8  1021.4  0.00  0.00   0.006   0.000   22.6    56   13.4   22.6  10.30  .0740    116    1    100.0    5 
26/09/16  11:20   16.6   16.7   16.6    76   12.4  16.0   SSW   1.33  19.0   SSW   13.6   16.6   13.5  1021.4  0.00  0.00   0.006   0.000   22.7    56   13.4   22.7  10.29  .0740    116    1    100.0    5 
26/09/16  11:25   16.7   16.7   16.7    77   12.6  15.0   SSW   1.25  18.0    SW   13.8   16.7   13.8  1021.4  0.00  0.00   0.006   0.000   22.7    56   13.5   22.7  10.29  .0740    116    1    100.0    5 
26/09/16  11:30   16.7   16.7   16.7    76   12.4  13.0   SSW   1.08  18.0   SSW   14.2   16.6   14.2  1021.4  0.00  0.00   0.006   0.000   22.7    56   13.5   22.7  10.29  .0740    117    1    100.0    5 
26/09/16  11:35   16.8   16.8   16.7    78   12.9  13.0   SSW   1.08  17.0   SSW   14.3   16.8   14.4  1021.3  0.00  0.00   0.005   0.000   22.8    56   13.5   22.8  10.29  .0740    117    1    100.0    5 
26/09/16  11:40   16.7   16.8   16.7    77   12.7  14.0   SSW   1.17  18.0   SSW   14.1   16.7   14.1  1021.4  0.00  0.00   0.006   0.000   22.8    56   13.5   22.8  10.29  .0740    116    1    100.0    5 
26/09/16  11:45   16.8   16.8   16.7    77   12.7  15.0   SSW   1.25  19.0   SSW   13.9   16.8   13.9  1021.5  0.00  0.00   0.005   0.000   22.8    56   13.5   22.8  10.29  .0740    117    1    100.0    5 
26/09/16  11:50   16.8   16.8   16.8    78   12.9  14.0   SSW   1.17  18.0   SSW   14.1   16.8   14.2  1021.5  0.00  0.00   0.005   0.000   22.8    56   13.5   22.8  10.29  .0740    116    1    100.0    5 
26/09/16  11:55   16.8   16.8   16.7    77   12.7  15.0   SSW   1.25  19.0   SSW   13.9   16.8   13.9  1021.5  0.00  0.00   0.005   0.000   22.8    56   13.5   22.8  10.29  .0740    117    1    100.0    5 
26/09/16  12:00   16.8   16.8   16.8    78   13.0  15.0   SSW   1.25  18.0   SSW   14.0   16.9   14.1  1021.4  0.00  0.00   0.005   0.000   22.8    56   13.5   22.8  10.29  .0740    117    1    100.0    5 
26/09/16  12:05   16.8   16.8   16.8    77   12.8  14.0   SSW   1.17  18.0    SW   14.2   16.8   14.2  1021.4  0.00  0.00   0.005   0.000   22.8    56   13.6   22.9  10.29  .0739    117    1    100.0    5 
26/09/16  12:10   16.9   16.9   16.8    77   12.8  14.0   SSW   1.17  18.0     S   14.2   16.9   14.2  1021.4  0.00  0.00   0.005   0.000   22.8    56   13.6   22.9  10.29  .0739    117    1    100.0    5 
26/09/16  12:15   16.9   16.9   16.9    78   13.1  13.0   SSW   1.08  18.0   SSW   14.6   17.0   14.6  1021.4  0.00  0.00   0.005   0.000   22.8    56   13.5   22.8  10.29  .0740    117    1    100.0    5 
26/09/16  12:20   16.9   17.0   16.9    78   13.1  13.0   SSW   1.08  17.0   SSW   14.6   17.0   14.6  1021.4  0.00  0.00   0.005   0.000   22.8    56   13.6   22.9  10.29  .0739    116    1    100.0    5 
26/09/16  12:25   16.9   16.9   16.9    78   13.1  15.0   SSW   1.25  18.0   SSW   14.1   17.0   14.2  1021.4  0.00  0.00   0.005   0.000   22.8    56   13.6   22.9  10.29  .0739    117    1    100.0    5 
26/09/16  12:30   16.9   16.9   16.8    78   13.0  14.0   SSW   1.17  19.0   SSW   14.2   16.9   14.3  1021.4  0.00  0.00   0.005   0.000   22.8    56   13.6   22.9  10.29  .0739    116    1    100.0    5 
26/09/16  12:35   16.9   16.9   16.9    78   13.0  14.0   SSW   1.17  18.0   SSW   14.2   16.9   14.3  1021.4  0.00  0.00   0.005   0.000   22.9    56   13.6   22.9  10.29  .0739    117    1    100.0    5 
26/09/16  12:40   16.8   16.9   16.8    77   12.8  15.0   SSW   1.25  18.0   SSW   14.0   16.8   14.0  1021.4  0.00  0.00   0.005   0.000   22.9    56   13.7   23.0  10.28  .0739    116    1    100.0    5 
26/09/16  12:45   16.8   16.8   16.8    77   12.7  15.0   SSW   1.25  18.0   SSW   13.9   16.8   13.9  1021.4  0.00  0.00   0.005   0.000   22.9    56   13.7   23.0  10.28  .0739    117    1    100.0    5 
26/09/16  12:50   16.8   16.8   16.8    77   12.8  15.0   SSW   1.25  18.0    SW   14.0   16.8   14.0  1021.4  0.00  0.00   0.005   0.000   23.0    56   13.7   23.1  10.28  .0739    116    1    100.0    5 
26/09/16  12:55   16.8   16.8   16.8    77   12.8  15.0   SSW   1.25  18.0    SW   14.0   16.8   14.0  1021.5  0.00  0.00   0.005   0.000   23.0    56   13.7   23.1  10.28  .0739    116    1    100.0    5 
26/09/16  13:00   16.8   16.8   16.8    77   12.8  14.0   SSW   1.17  17.0   SSW   14.2   16.8   14.2  1021.4  0.00  0.00   0.005   0.000   23.1    56   13.8   23.2  10.28  .0739    117    1    100.0    5 
26/09/16  13:05   16.8   16.8   16.8    78   12.9  12.0   SSW   1.00  17.0   SSW   14.6   16.8   14.6  1021.4  0.00  0.00   0.005   0.000   23.1    55   13.5   23.1  10.08  .0739    116    1    100.0    5 
26/09/16  13:10   16.7   16.8   16.7    78   12.9  13.0   SSW   1.08  16.0   SSW   14.3   16.7   14.3  1021.3  0.00  0.00   0.006   0.000   23.1    55   13.5   23.1  10.08  .0739    117    1    100.0    5 
26/09/16  13:15   16.7   16.7   16.7    78   12.9  13.0   SSW   1.08  17.0   SSW   14.3   16.7   14.3  1021.4  0.00  0.00   0.006   0.000   23.1    55   13.6   23.2  10.08  .0739    117    1    100.0    5 
26/09/16  13:20   16.7   16.8   16.7    79   13.1  14.0   SSW   1.17  18.0   SSW   14.1   16.8   14.1  1021.3  0.00  0.00   0.006   0.000   23.1    55   13.6   23.2  10.08  .0739    117    1    100.0    5 
26/09/16  13:25   16.7   16.7   16.7    79   13.0  16.0   SSW   1.33  20.0   SSW   13.6   16.7   13.7  1021.3  0.00  0.00   0.006   0.000   23.1    55   13.6   23.2  10.08  .0739    118    1    100.0    5 
26/09/16  13:30   16.7   16.7   16.6    79   13.0  13.0   SSW   1.08  19.0   SSW   14.2   16.7   14.3  1021.2  0.00  0.00   0.006   0.000   23.1    55   13.6   23.2  10.08  .0739    115    1    100.0    5 
26/09/16  13:35   16.8   16.8   16.7    79   13.1  13.0   SSW   1.08  17.0   SSW   14.3   16.8   14.4  1021.3  0.00  0.00   0.005   0.000   23.1    55   13.6   23.2  10.08  .0739    116    1    100.0    5 
26/09/16  13:40   16.8   16.8   16.7    79   13.1  13.0   SSW   1.08  18.0   SSW   14.3   16.8   14.4  1021.3  0.00  0.00   0.005   0.000   23.2    55   13.6   23.2  10.08  .0739    115    1    100.0    5 
26/09/16  13:45   16.8   16.8   16.8    78   12.9  14.0   SSW   1.17  18.0   SSW   14.1   16.8   14.2  1021.2  0.00  0.00   0.005   0.000   23.1    55   13.6   23.2  10.08  .0739    116    1    100.0    5 
26/09/16  13:50   16.9   16.9   16.8    78   13.0  14.0   SSW   1.17  19.0   SSW   14.2   16.9   14.3  1021.1  0.00  0.00   0.005   0.000   23.2    55   13.6   23.2  10.08  .0738    116    1    100.0    5 
26/09/16  13:55   17.1   17.1   16.9    78   13.2  13.0   SSW   1.08  17.0   SSW   14.7   17.2   14.8  1021.0  0.00  0.00   0.004   0.000   23.2    55   13.6   23.2  10.08  .0738    116    1    100.0    5 
26/09/16  14:00   17.2   17.2   17.1    78   13.3  13.0     S   1.08  17.0   SSW   14.8   17.2   14.8  1021.0  0.00  0.00   0.004   0.000   23.2    55   13.6   23.2  10.08  .0738    116    1    100.0    5 
26/09/16  14:05   17.2   17.2   17.1    78   13.3  13.0     S   1.08  15.0   SSW   14.8   17.2   14.8  1021.0  0.00  0.00   0.004   0.000   23.2    55   13.6   23.2  10.08  .0738    117    1    100.0    5 
26/09/16  14:10   17.3   17.3   17.2    77   13.2  11.0   SSW   0.92  16.0   SSW   15.5   17.3   15.6  1021.1  0.00  0.00   0.004   0.000   23.2    55   13.6   23.2  10.08  .0738    115    1    100.0    5 
26/09/16  14:15   17.2   17.3   17.2    77   13.2  12.0   SSW   1.00  16.0   SSW   15.1   17.3   15.2  1021.0  0.00  0.00   0.004   0.000   23.2    55   13.7   23.3  10.07  .0738    117    1    100.0    5 
26/09/16  14:20   17.1   17.2   17.1    78   13.2  14.0   SSW   1.17  18.0   SSW   14.4   17.1   14.5  1020.9  0.00  0.00   0.004   0.000   23.2    55   13.7   23.3  10.07  .0738    116    1    100.0    5 
26/09/16  14:25   17.2   17.2   17.1    80   13.7  11.0   SSW   0.92  15.0   SSW   15.4   17.4   15.6  1021.0  0.00  0.00   0.004   0.000   23.2    55   13.7   23.3  10.07  .0738    116    1    100.0    5 
26/09/16  14:30   17.3   17.3   17.3    79   13.7  11.0   SSW   0.92  16.0   SSW   15.6   17.5   15.7  1020.8  0.00  0.00   0.003   0.000   23.2    55   13.7   23.3  10.07  .0738    117    1    100.0    5 
26/09/16  14:35   17.3   17.4   17.3    78   13.5  11.0   SSW   0.92  16.0   SSW   15.6   17.4   15.7  1020.8  0.00  0.00   0.003   0.000   23.2    55   13.7   23.3  10.07  .0738    117    1    100.0    5 
26/09/16  14:40   17.5   17.5   17.3    78   13.6  11.0   SSW   0.92  14.0   SSW   15.8   17.6   15.9  1020.8  0.00  0.00   0.003   0.000   23.2    55   13.7   23.3  10.07  .0738    117    1    100.0    5 
26/09/16  14:45   17.7   17.7   17.5    78   13.8  10.0     S   0.83  14.0     S   16.3   17.8   16.5  1020.8  0.00  0.00   0.002   0.000   23.3    56   14.0   23.4  10.27  .0738    117    1    100.0    5 
26/09/16  14:50   17.8   17.8   17.7    78   13.9  10.0     S   0.83  12.0     S   16.5   18.1   16.7  1020.8  0.00  0.00   0.002   0.000   23.3    56   14.0   23.4  10.27  .0738    116    1    100.0    5 
26/09/16  14:55   18.0   18.0   17.8    78   14.1  10.0     S   0.83  14.0   SSE   16.7   18.2   16.9  1020.8  0.00  0.00   0.001   0.000   23.3    56   14.1   23.5  10.27  .0737    117    1    100.0    5 
26/09/16  15:00   17.8   18.0   17.8    77   13.7   9.0     S   0.75  13.0     S   16.9   18.0   17.1  1020.9  0.00  0.00   0.002   0.000   23.3    56   14.1   23.5  10.27  .0737    116    1    100.0    5 
26/09/16  15:05   17.7   17.8   17.7    77   13.6   9.0     S   0.75  12.0     S   16.8   17.8   16.9  1021.0  0.00  0.00   0.002   0.000   23.4    56   14.1   23.6  10.27  .0737    117    1    100.0    5 
26/09/16  15:10   17.4   17.7   17.4    77   13.4   9.0     S   0.75  12.0     S   16.5   17.5   16.6  1021.0  0.00  0.00   0.003   0.000   23.4    56   14.2   23.7  10.27  .0737    117    1    100.0    5 
26/09/16  15:15   17.2   17.4   17.2    77   13.2  10.0   SSW   0.83  13.0     S   15.8   17.3   15.9  1021.1  0.00  0.00   0.004   0.000   23.5    56   14.2   23.7  10.26  .0737    117    1    100.0    5 
26/09/16  15:20   17.2   17.2   17.2    77   13.1   8.0   SSW   0.67  12.0   SSW   16.7   17.2   16.7  1021.1  0.00  0.00   0.004   0.000   23.5    56   14.2   23.7  10.26  .0737    117    1    100.0    5 
26/09/16  15:25   17.2   17.2   17.2    77   13.1  10.0   SSW   0.83  13.0   SSW   15.8   17.2   15.8  1021.1  0.00  0.00   0.004   0.000   23.5    56   14.2   23.7  10.26  .0737    117    1    100.0    5 
26/09/16  15:30   17.2   17.2   17.1    78   13.3   8.0   SSW   0.67  11.0   SSW   16.7   17.2   16.7  1021.1  0.00  0.00   0.004   0.000   23.5    55   13.9   23.7  10.06  .0737    117    1    100.0    5 
26/09/16  15:35   17.1   17.2   17.1    77   13.0   8.0   SSW   0.67  12.0   SSW   16.5   17.1   16.5  1021.2  0.00  0.00   0.004   0.000   23.5    55   13.9   23.7  10.06  .0737    117    1    100.0    5 
26/09/16  15:40   17.1   17.1   17.1    78   13.2   9.0   SSW   0.75  13.0   SSW   16.0   17.1   16.1  1021.2  0.00  0.00   0.004   0.000   23.5    55   13.9   23.7  10.06  .0737    117    1    100.0    5 
26/09/16  15:45   17.1   17.1   17.1    78   13.2   9.0   SSW   0.75  12.0     S   16.1   17.2   16.2  1021.1  0.00  0.00   0.004   0.000   23.6    55   14.0   23.7  10.06  .0737    117    1    100.0    5 
26/09/16  15:50   17.2   17.2   17.1    78   13.3   9.0     S   0.75  13.0     S   16.2   17.2   16.2  1021.1  0.00  0.00   0.004   0.000   23.5    55   13.9   23.7  10.06  .0737    115    1    100.0    5 
26/09/16  15:55   17.2   17.2   17.2    77   13.1  10.0     S   0.83  14.0     S   15.8   17.2   15.8  1021.1  0.00  0.00   0.004   0.000   23.5    55   13.9   23.7  10.06  .0737    116    1    100.0    5 
26/09/16  16:00   17.4   17.4   17.2    78   13.6   9.0     S   0.75  12.0     S   16.5   17.6   16.6  1020.9  0.00  0.00   0.003   0.000   23.6    55   14.0   23.7  10.06  .0737    117    1    100.0    5 
26/09/16  16:05   17.6   17.6   17.5    77   13.5   9.0     S   0.75  11.0     S   16.7   17.7   16.8  1021.1  0.00  0.00   0.003   0.000   23.6    55   14.0   23.7  10.06  .0737    116    1    100.0    5 
26/09/16  16:10   17.5   17.6   17.5    76   13.2   9.0   SSW   0.75  12.0   SSW   16.6   17.6   16.6  1021.1  0.00  0.00   0.003   0.000   23.6    55   14.0   23.7  10.06  .0737    117    1    100.0    5 
26/09/16  16:15   17.3   17.5   17.3    76   13.1   9.0   SSW   0.75  11.0   SSW   16.3   17.3   16.3  1021.2  0.00  0.00   0.003   0.000   23.6    55   14.0   23.7  10.06  .0737    117    1    100.0    5 
26/09/16  16:20   17.3   17.3   17.3    77   13.2   9.0   SSW   0.75  13.0   SSW   16.3   17.3   16.3  1021.2  0.00  0.00   0.004   0.000   23.6    55   14.0   23.8  10.06  .0737    117    1    100.0    5 
26/09/16  16:25   17.3   17.3   17.3    78   13.4   8.0     S   0.67  11.0     S   16.8   17.4   16.9  1021.1  0.00  0.00   0.004   0.000   23.6    55   14.0   23.8  10.06  .0737    117    1    100.0    5 
26/09/16  16:30   17.2   17.3   17.2    78   13.4   8.0     S   0.67  12.0     S   16.7   17.3   16.8  1021.1  0.00  0.00   0.004   0.000   23.6    55   14.0   23.8  10.06  .0737    116    1    100.0    5 
26/09/16  16:35   17.1   17.2   17.1    77   13.0  10.0     S   0.83  14.0     S   15.6   17.1   15.6  1021.1  0.00  0.00   0.004   0.000   23.6    55   14.0   23.8  10.06  .0737    118    1    100.0    5 
26/09/16  16:40   17.1   17.1   17.0    77   13.0  10.0     S   0.83  13.0     S   15.6   17.1   15.6  1021.0  0.00  0.00   0.004   0.000   23.6    55   14.0   23.8  10.06  .0737    116    1    100.0    5 
26/09/16  16:45   17.0   17.1   17.0    77   12.9  10.0     S   0.83  13.0     S   15.6   17.0   15.6  1021.0  0.00  0.00   0.005   0.000   23.6    55   14.0   23.8  10.06  .0737    117    1    100.0    5 
26/09/16  16:50   17.0   17.0   17.0    77   12.9   9.0     S   0.75  13.0     S   15.9   17.0   15.9  1021.1  0.00  0.00   0.005   0.000   23.6    55   14.0   23.8  10.06  .0737    117    1    100.0    5 
26/09/16  16:55   17.1   17.1   17.0    77   13.0  10.0     S   0.83  13.0     S   15.6   17.1   15.6  1021.1  0.00  0.00   0.004   0.000   23.6    55   14.0   23.8  10.06  .0737    116    1    100.0    5 
26/09/16  17:00   17.1   17.1   17.1    75   12.6   9.0     S   0.75  12.0     S   16.1   17.1   16.1  1021.0  0.00  0.00   0.004   0.000   23.6    55   14.0   23.8  10.06  .0737    117    1    100.0    5 
26/09/16  17:05   17.2   17.2   17.1    75   12.7   9.0     S   0.75  11.0     S   16.2   17.1   16.1  1021.0  0.00  0.00   0.004   0.000   23.6    55   14.0   23.8  10.06  .0737    117    1    100.0    5 
26/09/16  17:10   17.2   17.2   17.2    74   12.5   9.0     S   0.75  12.0     S   16.2   17.1   16.1  1021.1  0.00  0.00   0.004   0.000   23.7    55   14.1   23.9  10.06  .0737    115    1    100.0    5 
26/09/16  17:15   17.1   17.2   17.1    74   12.4   9.0     S   0.75  11.0     S   16.1   17.0   16.0  1021.0  0.00  0.00   0.004   0.000   23.7    55   14.1   23.9  10.06  .0737    117    1    100.0    5 
26/09/16  17:20   17.1   17.1   17.1    74   12.4   8.0     S   0.67  13.0   SSE   16.6   17.0   16.5  1020.9  0.00  0.00   0.004   0.000   23.7    55   14.1   23.9  10.06  .0737    115    1    100.0    5 
26/09/16  17:25   17.1   17.1   17.1    74   12.4   8.0     S   0.67  11.0   SSE   16.6   17.0   16.5  1020.7  0.00  0.00   0.004   0.000   23.7    55   14.1   23.9  10.06  .0736    117    1    100.0    5 
26/09/16  17:30   17.1   17.1   17.1    75   12.6   9.0     S   0.75  11.0     S   16.0   17.0   15.9  1020.8  0.00  0.00   0.004   0.000   23.7    55   14.1   23.9  10.06  .0736    116    1    100.0    5 
26/09/16  17:35   17.1   17.1   17.1    75   12.6   9.0     S   0.75  12.0     S   16.0   17.0   15.9  1020.9  0.00  0.00   0.004   0.000   23.7    55   14.1   23.9  10.06  .0736    117    1    100.0    5 
26/09/16  17:40   17.1   17.1   17.0    75   12.6   9.0     S   0.75  12.0     S   16.0   17.0   15.9  1020.8  0.00  0.00   0.004   0.000   23.8    55   14.2   24.0  10.05  .0736    118    1    100.0    5 
26/09/16  17:45   17.1   17.1   17.1    74   12.4   9.0     S   0.75  11.0     S   16.0   16.9   15.9  1020.8  0.00  0.00   0.004   0.000   23.8    55   14.2   24.0  10.05  .0736    117    1    100.0    5 
26/09/16  17:50   16.9   17.1   16.9    75   12.5   9.0     S   0.75  11.0   SSE   15.9   16.8   15.8  1020.9  0.00  0.00   0.005   0.000   23.8    55   14.2   24.1  10.05  .0736    116    1    100.0    5 
26/09/16  17:55   16.9   16.9   16.9    75   12.4   8.0     S   0.67  11.0     S   16.3   16.8   16.2  1020.8  0.00  0.00   0.005   0.000   23.8    54   14.0   24.1   9.85  .0736    117    1    100.0    5 
26/09/16  18:00   16.9   16.9   16.8    75   12.4   8.0     S   0.67  10.0     S   16.3   16.8   16.2  1020.7  0.00  0.00   0.005   0.000   23.8    54   14.0   24.1   9.85  .0736    117    1    100.0    5 
26/09/16  18:05   16.8   16.9   16.8    76   12.6   8.0     S   0.67  11.0     S   16.3   16.8   16.2  1020.9  0.00  0.00   0.005   0.000   23.9    54   14.0   24.1   9.85  .0736    117    1    100.0    5 
26/09/16  18:10   16.8   16.8   16.8    76   12.5   8.0     S   0.67  11.0     S   16.2   16.7   16.1  1020.9  0.00  0.00   0.005   0.000   23.9    54   14.0   24.1   9.85  .0736    117    1    100.0    5 
26/09/16  18:15   16.7   16.8   16.7    76   12.5  10.0     S   0.83  12.0     S   15.2   16.7   15.2  1020.8  0.00  0.00   0.006   0.000   23.9    54   14.0   24.1   9.85  .0736    117    1    100.0    5 
26/09/16  18:20   16.7   16.7   16.7    76   12.4   9.0   SSE   0.75  12.0     S   15.6   16.6   15.5  1020.8  0.00  0.00   0.006   0.000   23.9    54   14.1   24.2   9.85  .0736    117    1    100.0    5 
26/09/16  18:25   16.7   16.7   16.6    75   12.2  10.0     S   0.83  14.0   SSE   15.2   16.6   15.1  1020.8  0.00  0.00   0.006   0.000   23.9    54   14.1   24.2   9.85  .0736    117    1    100.0    5 
26/09/16  18:30   16.7   16.7   16.6    75   12.2  10.0   SSE   0.83  13.0     S   15.2   16.6   15.1  1020.8  0.00  0.00   0.006   0.000   23.9    54   14.1   24.2   9.85  .0736    117    1    100.0    5 
26/09/16  18:35   16.7   16.7   16.6    76   12.4   9.0     S   0.75  12.0     S   15.6   16.6   15.5  1020.8  0.00  0.00   0.006   0.000   23.9    54   14.1   24.2   9.85  .0736    117    1    100.0    5 
26/09/16  18:40   16.6   16.7   16.6    76   12.4   9.0   SSE   0.75  11.0     S   15.5   16.6   15.4  1020.8  0.00  0.00   0.006   0.000   23.9    54   14.1   24.2   9.85  .0736    118    1    100.0    5 
26/09/16  18:45   16.6   16.6   16.6    75   12.1   8.0   SSE   0.67  12.0   SSE   15.9   16.4   15.8  1020.9  0.00  0.00   0.006   0.000   24.0    54   14.1   24.2   9.85  .0736    117    1    100.0    5 
26/09/16  18:50   16.5   16.6   16.5    75   12.1   9.0   SSE   0.75  13.0   SSE   15.4   16.4   15.3  1021.0  0.00  0.00   0.006   0.000   24.0    54   14.1   24.2   9.85  .0736    117    1    100.0    5 
26/09/16  18:55   16.5   16.5   16.5    74   11.8   9.0   SSE   0.75  12.0   SSE   15.4   16.3   15.2  1020.9  0.00  0.00   0.006   0.000   24.0    54   14.1   24.2   9.85  .0736    116    1    100.0    5 
26/09/16  19:00   16.5   16.5   16.4    75   12.1   9.0   SSE   0.75  12.0   SSE   15.4   16.4   15.3  1020.9  0.00  0.00   0.006   0.000   24.0    53   13.8   24.2   9.65  .0736    117    1    100.0    5 
26/09/16  19:05   16.5   16.5   16.5    75   12.1   9.0   SSE   0.75  12.0   SSE   15.4   16.4   15.3  1021.0  0.00  0.00   0.006   0.000   24.0    53   13.8   24.2   9.65  .0736    116    1    100.0    5 
26/09/16  19:10   16.4   16.5   16.4    75   12.0   9.0   SSE   0.75  11.0   SSE   15.3   16.3   15.2  1021.0  0.00  0.00   0.007   0.000   24.0    53   13.8   24.2   9.65  .0736    117    1    100.0    5 
26/09/16  19:15   16.5   16.5   16.4    75   12.1   9.0   SSE   0.75  11.0   SSE   15.4   16.4   15.3  1020.9  0.00  0.00   0.006   0.000   23.9    53   13.8   24.1   9.65  .0736    117    1    100.0    5 
26/09/16  19:20   16.5   16.5   16.5    75   12.1   9.0   SSE   0.75  11.0   SSE   15.4   16.4   15.3  1020.8  0.00  0.00   0.006   0.000   23.9    53   13.8   24.1   9.65  .0736    117    1    100.0    5 
26/09/16  19:25   16.5   16.5   16.4    75   12.1   9.0   SSE   0.75  12.0   SSE   15.4   16.4   15.3  1020.8  0.00  0.00   0.006   0.000   23.9    53   13.7   24.1   9.65  .0736    117    1    100.0    5 
26/09/16  19:30   16.5   16.6   16.5    75   12.1   9.0   SSE   0.75  12.0   SSE   15.4   16.4   15.3  1021.0  0.00  0.00   0.006   0.000   23.9    53   13.7   24.1   9.65  .0736    117    1    100.0    5 
26/09/16  19:35   16.5   16.6   16.5    75   12.1  10.0   SSE   0.83  13.0   SSE   14.9   16.4   14.8  1020.9  0.00  0.00   0.006   0.000   23.8    53   13.7   24.0   9.65  .0737    117    1    100.0    5 
26/09/16  19:40   16.6   16.6   16.5    75   12.1  10.0   SSE   0.83  13.0   SSE   15.1   16.4   14.9  1021.0  0.00  0.00   0.006   0.000   23.8    53   13.7   24.0   9.65  .0737    116    1    100.0    5 
26/09/16  19:45   16.6   16.6   16.5    75   12.1   9.0   SSE   0.75  13.0   SSE   15.4   16.4   15.3  1020.9  0.00  0.00   0.006   0.000   23.8    54   13.9   24.0   9.85  .0736    118    1    100.0    5 
26/09/16  19:50   16.6   16.6   16.6    76   12.3   9.0   SSE   0.75  11.0    SE   15.4   16.5   15.4  1020.9  0.00  0.00   0.006   0.000   23.8    54   13.9   24.0   9.85  .0737    116    1    100.0    5 
26/09/16  19:55   16.6   16.6   16.5    76   12.3   9.0   SSE   0.75  11.0    SE   15.4   16.5   15.4  1020.9  0.00  0.00   0.006   0.000   23.7    54   13.9   23.9   9.86  .0737    117    1    100.0    5 
26/09/16  20:00   16.6   16.6   16.5    76   12.3  10.0   SSE   0.83  13.0   SSE   15.1   16.5   15.0  1020.9  0.00  0.00   0.006   0.000   23.7    54   13.9   23.9   9.86  .0737    116    1    100.0    5 
26/09/16  20:05   16.5   16.6   16.5    76   12.3  10.0   SSE   0.83  12.0    SE   14.9   16.4   14.8  1020.9  0.00  0.00   0.006   0.000   23.7    54   13.8   23.8   9.86  .0737    117    1    100.0    5 
26/09/16  20:10   16.6   16.6   16.6    76   12.3  10.0   SSE   0.83  12.0   SSE   15.1   16.5   15.0  1020.9  0.00  0.00   0.006   0.000   23.7    54   13.8   23.8   9.86  .0737    117    1    100.0    5 
26/09/16  20:15   16.6   16.6   16.6    77   12.6  10.0   SSE   0.83  13.0     S   15.1   16.6   15.1  1021.0  0.00  0.00   0.006   0.000   23.7    54   13.8   23.8   9.86  .0737    116    1    100.0    5 
26/09/16  20:20   16.6   16.6   16.6    77   12.6  10.0   SSE   0.83  12.0   SSE   15.1   16.6   15.1  1021.0  0.00  0.00   0.006   0.000   23.6    54   13.8   23.8   9.86  .0737    117    1    100.0    5 
26/09/16  20:25   16.7   16.7   16.6    77   12.6   9.0   SSE   0.75  11.0   SSE   15.6   16.7   15.6  1021.1  0.00  0.00   0.006   0.000   23.6    54   13.7   23.7   9.86  .0737    115    1    100.0    5 
26/09/16  20:30   16.6   16.7   16.6    77   12.6   8.0   SSE   0.67  11.0   SSE   16.0   16.6   15.9  1021.0  0.00  0.00   0.006   0.000   23.6    54   13.7   23.7   9.86  .0737    117    1    100.0    5 
26/09/16  20:35   16.6   16.7   16.6    77   12.6  10.0   SSE   0.83  12.0   SSE   15.1   16.6   15.1  1021.1  0.00  0.00   0.006   0.000   23.6    55   14.0   23.7  10.06  .0737    117    1    100.0    5 
26/09/16  20:40   16.7   16.7   16.6    78   12.8   9.0   SSE   0.75  13.0   SSE   15.6   16.7   15.6  1021.0  0.00  0.00   0.006   0.000   23.5    55   13.9   23.7  10.06  .0737    117    1    100.0    5 
26/09/16  20:45   16.7   16.7   16.7    78   12.8  10.0     S   0.83  13.0     S   15.2   16.7   15.2  1021.1  0.00  0.00   0.006   0.000   23.5    55   13.9   23.7  10.06  .0737    116    1    100.0    5 
26/09/16  20:50   16.7   16.7   16.7    79   13.0  10.0   SSE   0.83  12.0   SSE   15.2   16.7   15.2  1021.1  0.00  0.00   0.006   0.000   23.5    55   13.9   23.7  10.06  .0737    116    1    100.0    5 
26/09/16  20:55   16.6   16.7   16.6    78   12.8   9.0   SSE   0.75  11.0   SSE   15.5   16.6   15.5  1021.2  0.00  0.00   0.006   0.000   23.4    55   13.9   23.6  10.07  .0738    116    1    100.0    5 
26/09/16  21:00   16.6   16.6   16.6    78   12.8   8.0   SSE   0.67  12.0   SSE   16.0   16.6   16.0  1021.1  0.00  0.00   0.006   0.000   23.4    55   13.9   23.6  10.07  .0737    117    1    100.0    5 
26/09/16  21:05   16.6   16.6   16.6    78   12.7   9.0   SSE   0.75  12.0   SSE   15.4   16.6   15.4  1021.1  0.00  0.00   0.006   0.000   23.4    55   13.9   23.6  10.07  .0738    117    1    100.0    5 
26/09/16  21:10   16.6   16.6   16.6    78   12.7   8.0   SSE   0.67  11.0   SSE   15.9   16.6   15.9  1021.1  0.00  0.00   0.006   0.000   23.4    55   13.9   23.6  10.07  .0738    117    1    100.0    5 
26/09/16  21:15   16.6   16.6   16.6    79   12.9   8.0   SSE   0.67  10.0   SSE   15.9   16.6   16.0  1021.1  0.00  0.00   0.006   0.000   23.4    55   13.9   23.6  10.07  .0738    116    1    100.0    5 
26/09/16  21:20   16.6   16.6   16.5    79   12.9   8.0   SSE   0.67   9.0   SSE   15.9   16.6   16.0  1021.2  0.00  0.00   0.006   0.000   23.4    55   13.8   23.5  10.07  .0738    117    1    100.0    5 
26/09/16  21:25   16.6   16.6   16.6    79   12.9   8.0   SSE   0.67  10.0    SE   15.9   16.6   16.0  1021.2  0.00  0.00   0.006   0.000   23.4    55   13.8   23.5  10.07  .0738    117    1    100.0    5 
26/09/16  21:30   16.5   16.6   16.5    79   12.8   7.0   SSE   0.58   9.0    SE   16.3   16.6   16.3  1021.2  0.00  0.00   0.006   0.000   23.4    55   13.8   23.5  10.07  .0738    117    1    100.0    5 
26/09/16  21:35   16.4   16.5   16.4    79   12.8   7.0    SE   0.58  11.0    SE   16.2   16.4   16.2  1021.3  0.00  0.00   0.007   0.000   23.4    55   13.8   23.5  10.07  .0738    116    1    100.0    5 
26/09/16  21:40   16.4   16.5   16.4    79   12.7   8.0   SSE   0.67  10.0   SSE   15.7   16.4   15.7  1021.3  0.00  0.00   0.007   0.000   23.3    55   13.8   23.4  10.07  .0738    117    1    100.0    5 
26/09/16  21:45   16.4   16.4   16.4    79   12.8   8.0   SSE   0.67  10.0   SSE   15.8   16.4   15.8  1021.3  0.00  0.00   0.007   0.000   23.3    55   13.8   23.4  10.07  .0738    117    1    100.0    5 
26/09/16  21:50   16.4   16.4   16.4    79   12.8   7.0   SSE   0.58   9.0   SSE   16.2   16.4   16.2  1021.3  0.00  0.00   0.007   0.000   23.3    55   13.8   23.4  10.07  .0738    118    1    100.0    5 
26/09/16  21:55   16.4   16.4   16.4    78   12.6   8.0   SSE   0.67  11.0   SSE   15.8   16.4   15.8  1021.2  0.00  0.00   0.007   0.000   23.3    55   13.8   23.4  10.07  .0738    117    1    100.0    5 
26/09/16  22:00   16.4   16.4   16.4    78   12.6   8.0   SSE   0.67  10.0    SE   15.8   16.4   15.8  1021.1  0.00  0.00   0.007   0.000   23.3    55   13.8   23.4  10.07  .0738    117    1    100.0    5 
26/09/16  22:05   16.4   16.4   16.4    79   12.8   7.0   SSE   0.58  10.0   SSE   16.2   16.4   16.2  1021.2  0.00  0.00   0.007   0.000   23.3    55   13.7   23.4  10.07  .0738    117    1    100.0    5 
26/09/16  22:10   16.4   16.4   16.4    78   12.6   8.0   SSE   0.67  10.0   SSE   15.8   16.4   15.8  1021.3  0.00  0.00   0.007   0.000   23.3    55   13.8   23.4  10.07  .0738    117    1    100.0    5 
26/09/16  22:15   16.4   16.4   16.4    79   12.8   8.0   SSE   0.67   9.0   SSE   15.8   16.4   15.8  1021.2  0.00  0.00   0.007   0.000   23.3    55   13.7   23.4  10.07  .0738    117    1    100.0    5 
26/09/16  22:20   16.4   16.4   16.4    79   12.8   8.0   SSE   0.67  10.0   SSE   15.8   16.4   15.8  1021.3  0.00  0.00   0.007   0.000   23.3    55   13.7   23.4  10.07  .0738    117    1    100.0    5 
26/09/16  22:25   16.4   16.5   16.4    79   12.8   8.0   SSE   0.67  11.0   SSE   15.8   16.4   15.8  1021.3  0.00  0.00   0.007   0.000   23.2    55   13.7   23.3  10.07  .0738    116    1    100.0    5 
26/09/16  22:30   16.4   16.5   16.4    79   12.8   8.0   SSE   0.67  10.0   SSE   15.8   16.4   15.8  1021.3  0.00  0.00   0.007   0.000   23.2    55   13.7   23.3  10.07  .0738    117    1    100.0    5 
26/09/16  22:35   16.4   16.4   16.4    78   12.6   8.0   SSE   0.67  10.0    SE   15.8   16.4   15.8  1021.3  0.00  0.00   0.007   0.000   23.2    55   13.7   23.3  10.07  .0738    117    1    100.0    5 
26/09/16  22:40   16.4   16.4   16.4    78   12.6   9.0   SSE   0.75  11.0   SSE   15.3   16.4   15.3  1021.4  0.00  0.00   0.007   0.000   23.2    55   13.7   23.3  10.07  .0738    116    1    100.0    5 
26/09/16  22:45   16.5   16.5   16.4    78   12.6   9.0   SSE   0.75  11.0   SSE   15.4   16.5   15.4  1021.4  0.00  0.00   0.006   0.000   23.2    55   13.7   23.3  10.07  .0738    115    1    100.0    5 
26/09/16  22:50   16.5   16.5   16.5    77   12.5  10.0   SSE   0.83  12.0   SSE   14.9   16.4   14.9  1021.4  0.00  0.00   0.006   0.000   23.2    55   13.7   23.3  10.07  .0738    116    1    100.0    5 
26/09/16  22:55   16.6   16.6   16.5    78   12.7   9.0   SSE   0.75  11.0   SSE   15.4   16.6   15.4  1021.4  0.00  0.00   0.006   0.000   23.2    55   13.7   23.3  10.07  .0738    117    1    100.0    5 
26/09/16  23:00   16.5   16.6   16.5    77   12.5   9.0   SSE   0.75  12.0   SSE   15.4   16.4   15.3  1021.4  0.00  0.00   0.006   0.000   23.2    55   13.7   23.3  10.07  .0738    116    1    100.0    5 
26/09/16  23:05   16.6   16.6   16.5    77   12.5   9.0   SSE   0.75  12.0   SSE   15.4   16.5   15.4  1021.5  0.00  0.00   0.006   0.000   23.2    55   13.6   23.2  10.08  .0739    117    1    100.0    5 
26/09/16  23:10   16.5   16.6   16.5    76   12.3   9.0   SSE   0.75  11.0   SSE   15.4   16.4   15.3  1021.4  0.00  0.00   0.006   0.000   23.2    55   13.6   23.2  10.08  .0739    117    1    100.0    5 
26/09/16  23:15   16.4   16.6   16.4    75   12.0   9.0   SSE   0.75  11.0   SSE   15.3   16.3   15.2  1021.4  0.00  0.00   0.007   0.000   23.2    55   13.6   23.2  10.08  .0739    116    1    100.0    5 
26/09/16  23:20   16.5   16.5   16.4    75   12.1   9.0   SSE   0.75  11.0   SSE   15.4   16.4   15.3  1021.3  0.00  0.00   0.006   0.000   23.2    55   13.6   23.2  10.08  .0739    117    1    100.0    5 
26/09/16  23:25   16.6   16.6   16.5    76   12.4   9.0   SSE   0.75  11.0   SSE   15.5   16.6   15.4  1021.3  0.00  0.00   0.006   0.000   23.1    55   13.6   23.2  10.08  .0739    117    1    100.0    5 
26/09/16  23:30   16.6   16.7   16.6    76   12.4   9.0   SSE   0.75  11.0   SSE   15.5   16.6   15.4  1021.3  0.00  0.00   0.006   0.000   23.2    55   13.6   23.2  10.08  .0739    117    1    100.0    5 
26/09/16  23:35   16.6   16.7   16.6    77   12.6   8.0   SSE   0.67  11.0   SSE   16.0   16.6   15.9  1021.3  0.00  0.00   0.006   0.000   23.1    55   13.6   23.2  10.08  .0739    117    1    100.0    5 
26/09/16  23:40   16.6   16.6   16.6    76   12.3   9.0   SSE   0.75  11.0   SSE   15.4   16.5   15.4  1021.2  0.00  0.00   0.006   0.000   23.1    55   13.6   23.2  10.08  .0739    117    1    100.0    5 
26/09/16  23:45   16.6   16.6   16.6    74   11.9   9.0     S   0.75  12.0     S   15.4   16.4   15.3  1021.1  0.00  0.00   0.006   0.000   23.1    55   13.6   23.2  10.08  .0739    116    1    100.0    5 
26/09/16  23:50   16.7   16.7   16.6    75   12.2   9.0   SSE   0.75  13.0   SSE   15.6   16.6   15.4  1021.1  0.00  0.00   0.006   0.000   23.1    55   13.6   23.2  10.08  .0739    117    1    100.0    5 
26/09/16  23:55   16.7   16.7   16.7    75   12.3   8.0   SSE   0.67  10.0     S   16.1   16.6   16.0  1021.1  0.00  0.00   0.006   0.000   23.1    54   13.2   23.1   9.88  .0739    117    1    100.0    5 
27/09/16  00:00   16.7   16.7   16.7    75   12.3   8.0   SSE   0.67  10.0   SSE   16.1   16.6   16.0  1021.0  0.00  0.00   0.006   0.000   23.1    54   13.2   23.1   9.88  .0739    118    1    100.0    5 
27/09/16   0:05   16.7   16.8   16.7    75   12.2   9.0     S   0.75  12.0     S   15.6   16.6   15.4  1020.9  0.00  0.00   0.006   0.000   23.1    55   13.5   23.1  10.08  .0739    115    1    100.0    5 
27/09/16   0:10   16.7   16.8   16.7    76   12.5   9.0   SSE   0.75  14.0     S   15.6   16.7   15.6  1020.8  0.00  0.00   0.006   0.000   23.0    54   13.2   23.0   9.88  .0739    117    1    100.0    5 
27/09/16   0:15   16.8   16.8   16.7    76   12.5  10.0   SSE   0.83  13.0   SSE   15.3   16.7   15.2  1020.9  0.00  0.00   0.005   0.000   23.0    55   13.5   23.1  10.08  .0739    116    1    100.0    5 
27/09/16   0:20   16.8   16.8   16.8    76   12.5  10.0   SSE   0.83  13.0   SSE   15.3   16.7   15.2  1020.9  0.00  0.00   0.005   0.000   23.0    54   13.2   23.0   9.88  .0739    117    1    100.0    5 
27/09/16   0:25   16.8   16.8   16.7    76   12.5  10.0   SSE   0.83  13.0   SSE   15.3   16.7   15.2  1020.9  0.00  0.00   0.005   0.000   23.0    54   13.2   23.0   9.88  .0739    116    1    100.0    5 
27/09/16   0:30   16.7   16.8   16.7    75   12.2  10.0   SSE   0.83  13.0   SSE   15.2   16.6   15.1  1020.9  0.00  0.00   0.006   0.000   23.0    54   13.2   23.0   9.88  .0739    117    1    100.0    5 
27/09/16   0:35   16.7   16.7   16.7    75   12.2   9.0   SSE   0.75  12.0     S   15.6   16.6   15.4  1020.9  0.00  0.00   0.006   0.000   22.9    54   13.1   22.9   9.88  .0739    117    1    100.0    5 
27/09/16   0:40   16.7   16.7   16.7    76   12.5   9.0   SSE   0.75  12.0     S   15.6   16.7   15.6  1020.8  0.00  0.00   0.006   0.000   22.9    55   13.4   23.0  10.08  .0739    117    1    100.0    5 
27/09/16   0:45   16.7   16.7   16.7    74   12.0  10.0   SSE   0.83  13.0   SSE   15.2   16.5   15.0  1020.7  0.00  0.00   0.006   0.000   22.9    54   13.1   22.9   9.88  .0739    117    1    100.0    5 
27/09/16   0:50   16.7   16.7   16.7    74   12.1  10.0   SSE   0.83  13.0   SSE   15.2   16.6   15.1  1020.7  0.00  0.00   0.006   0.000   22.9    54   13.1   22.8   9.89  .0739    117    1    100.0    5 
27/09/16   0:55   16.7   16.8   16.7    75   12.3   9.0   SSE   0.75  12.0   SSE   15.6   16.6   15.5  1020.7  0.00  0.00   0.006   0.000   22.9    54   13.1   22.8   9.89  .0739    115    1    100.0    5 
27/09/16   1:00   16.8   16.8   16.7    75   12.3   9.0   SSE   0.75  12.0   SSE   15.7   16.7   15.6  1020.7  0.00  0.00   0.005   0.000   22.9    54   13.1   22.8   9.89  .0739    117    1    100.0    5 
27/09/16   1:05   16.8   16.8   16.7    74   12.1  10.0   SSE   0.83  14.0   SSE   15.3   16.7   15.2  1020.7  0.00  0.00   0.005   0.000   22.8    54   13.0   22.8   9.89  .0739    117    1    100.0    5 
27/09/16   1:10   16.8   16.8   16.7    74   12.1  11.0   SSE   0.92  13.0   SSE   14.9   16.7   14.8  1020.8  0.00  0.00   0.005   0.000   22.8    54   13.0   22.8   9.89  .0739    113    1     99.1    5 
27/09/16   1:15   16.8   16.8   16.8    75   12.4  10.0   SSE   0.83  13.0   SSE   15.4   16.7   15.3  1020.8  0.00  0.00   0.005   0.000   22.8    54   13.0   22.8   9.89  .0739    117    1    100.0    5 
27/09/16   1:20   16.8   16.9   16.8    75   12.4  10.0   SSE   0.83  12.0   SSE   15.4   16.7   15.3  1020.8  0.00  0.00   0.005   0.000   22.8    54   13.0   22.8   9.89  .0739    116    1    100.0    5 
27/09/16   1:25   16.8   16.8   16.8    76   12.6  10.0   SSE   0.83  14.0   SSE   15.4   16.8   15.3  1020.7  0.00  0.00   0.005   0.000   22.8    54   13.0   22.7   9.89  .0740    118    1    100.0    5 
27/09/16   1:30   16.8   16.8   16.8    76   12.5  10.0   SSE   0.83  13.0   SSE   15.3   16.7   15.2  1020.7  0.00  0.00   0.005   0.000   22.8    55   13.3   22.8  10.09  .0739    116    1    100.0    5 
27/09/16   1:35   16.8   16.8   16.8    76   12.5  12.0   SSE   1.00  13.0   SSE   14.6   16.7   14.5  1020.7  0.00  0.00   0.005   0.000   22.7    55   13.2   22.7  10.09  .0740    117    1    100.0    5 
27/09/16   1:40   16.8   16.8   16.7    76   12.5  11.0   SSE   0.92  14.0   SSE   14.9   16.7   14.8  1020.7  0.00  0.00   0.005   0.000   22.7    55   13.2   22.7  10.09  .0740    117    1    100.0    5 
27/09/16   1:45   16.8   16.8   16.7    76   12.5  12.0   SSE   1.00  15.0   SSE   14.6   16.7   14.5  1020.7  0.00  0.00   0.005   0.000   22.7    55   13.2   22.7  10.09  .0739    117    1    100.0    5 
27/09/16   1:50   16.8   16.8   16.8    76   12.5  12.0   SSE   1.00  15.0   SSE   14.6   16.7   14.5  1020.8  0.00  0.00   0.005   0.000   22.7    55   13.2   22.7  10.09  .0740    117    1    100.0    5 
27/09/16   1:55   16.8   16.8   16.8    76   12.5  12.0   SSE   1.00  14.0   SSE   14.6   16.7   14.5  1020.7  0.00  0.00   0.005   0.000   22.7    55   13.2   22.6  10.09  .0740    116    1    100.0    5 
27/09/16   2:00   16.8   16.8   16.8    77   12.8  12.0   SSE   1.00  14.0   SSE   14.7   16.8   14.7  1020.8  0.00  0.00   0.005   0.000   22.7    55   13.2   22.6  10.09  .0740    117    1    100.0    5 
27/09/16   2:05   16.8   16.9   16.8    77   12.8  12.0   SSE   1.00  15.0   SSE   14.7   16.8   14.7  1020.8  0.00  0.00   0.005   0.000   22.7    55   13.2   22.6  10.09  .0740    117    1    100.0    5 
27/09/16   2:10   16.8   16.9   16.8    77   12.8  11.0   SSE   0.92  14.0   SSE   15.0   16.8   15.0  1021.0  0.00  0.00   0.005   0.000   22.7    55   13.2   22.6  10.09  .0740    117    1    100.0    5 
27/09/16   2:15   16.8   16.8   16.8    77   12.7  10.0   SSE   0.83  13.0   SSE   15.3   16.8   15.3  1021.1  0.00  0.00   0.005   0.000   22.7    55   13.2   22.6  10.09  .0740    116    1    100.0    5 
27/09/16   2:20   16.8   16.8   16.7    77   12.7  11.0   SSE   0.92  15.0   SSE   14.9   16.8   14.9  1021.1  0.00  0.00   0.005   0.000   22.6    55   13.1   22.5  10.10  .0740    116    1    100.0    5 
27/09/16   2:25   16.8   16.8   16.7    77   12.8  11.0   SSE   0.92  14.0   SSE   15.0   16.8   15.0  1021.2  0.00  0.00   0.005   0.000   22.6    55   13.1   22.5  10.10  .0740    117    1    100.0    5 
27/09/16   2:30   16.8   16.9   16.8    78   13.0  11.0   SSE   0.92  15.0   SSE   15.0   16.9   15.1  1021.2  0.00  0.00   0.005   0.000   22.6    55   13.1   22.5  10.10  .0740    118    1    100.0    5 
27/09/16   2:35   16.8   16.8   16.8    78   13.0  11.0   SSE   0.92  15.0   SSE   15.0   16.9   15.1  1021.2  0.00  0.00   0.005   0.000   22.6    55   13.1   22.5  10.10  .0740    117    1    100.0    5 
27/09/16   2:40   16.8   16.8   16.8    78   13.0  12.0   SSE   1.00  15.0   SSE   14.7   16.9   14.7  1021.2  0.00  0.00   0.005   0.000   22.6    55   13.1   22.4  10.10  .0740    116    1    100.0    5 
27/09/16   2:45   16.8   16.9   16.8    78   13.0  12.0   SSE   1.00  16.0   SSE   14.7   16.9   14.7  1021.2  0.00  0.00   0.005   0.000   22.6    55   13.1   22.4  10.10  .0740    117    1    100.0    5 
27/09/16   2:50   16.8   16.8   16.8    78   13.0  13.0   SSE   1.08  16.0   SSE   14.4   16.9   14.4  1021.1  0.00  0.00   0.005   0.000   22.6    55   13.1   22.4  10.10  .0740    116    1    100.0    5 
27/09/16   2:55   16.8   16.8   16.8    77   12.7  12.0   SSE   1.00  16.0     S   14.6   16.8   14.6  1021.1  0.00  0.00   0.005   0.000   22.6    55   13.1   22.4  10.10  .0740    116    1    100.0    5 
27/09/16   3:00   16.8   16.8   16.8    76   12.6  13.0   SSE   1.08  16.0   SSE   14.4   16.8   14.3  1021.2  0.00  0.00   0.005   0.000   22.5    55   13.0   22.4  10.10  .0741    117    1    100.0    5 
27/09/16   3:05   16.9   16.9   16.8    76   12.6  13.0   SSE   1.08  16.0   SSE   14.4   16.8   14.4  1021.1  0.00  0.00   0.005   0.000   22.5    55   13.0   22.4  10.10  .0741    117    1    100.0    5 
27/09/16   3:10   17.0   17.0   16.9    78   13.1  12.0   SSE   1.00  15.0   SSE   14.8   17.1   14.9  1021.1  0.00  0.00   0.005   0.000   22.5    55   13.0   22.4  10.10  .0740    117    1    100.0    5 
27/09/16   3:15   17.0   17.0   16.9    78   13.1  13.0   SSE   1.08  16.0   SSE   14.6   17.1   14.7  1021.0  0.00  0.00   0.005   0.000   22.4    55   13.0   22.3  10.10  .0741    117    1    100.0    5 
27/09/16   3:20   17.0   17.0   17.0    77   12.9  14.0   SSE   1.17  16.0   SSE   14.4   17.0   14.4  1021.0  0.00  0.00   0.005   0.000   22.4    55   13.0   22.3  10.10  .0741    116    1    100.0    5 
27/09/16   3:25   17.0   17.0   17.0    77   12.9  14.0   SSE   1.17  18.0   SSE   14.4   17.0   14.4  1020.9  0.00  0.00   0.005   0.000   22.4    55   13.0   22.3  10.10  .0740    117    1    100.0    5 
27/09/16   3:30   17.1   17.1   17.0    77   13.0  14.0   SSE   1.17  16.0   SSE   14.4   17.1   14.4  1020.8  0.00  0.00   0.004   0.000   22.4    55   12.9   22.2  10.10  .0741    117    1    100.0    5 
27/09/16   3:35   17.1   17.1   17.1    77   13.0  14.0   SSE   1.17  17.0   SSE   14.4   17.1   14.4  1020.7  0.00  0.00   0.004   0.000   22.4    55   12.9   22.2  10.10  .0741    116    1    100.0    5 
27/09/16   3:40   17.1   17.1   17.1    77   13.0  14.0   SSE   1.17  17.0   SSE   14.4   17.1   14.4  1020.7  0.00  0.00   0.004   0.000   22.4    55   12.9   22.2  10.10  .0741    116    1    100.0    5 
27/09/16   3:45   17.0   17.1   17.0    77   12.9  14.0   SSE   1.17  18.0   SSE   14.4   17.0   14.4  1020.6  0.00  0.00   0.005   0.000   22.4    55   12.9   22.2  10.10  .0740    117    1    100.0    5 
27/09/16   3:50   17.1   17.1   17.0    78   13.2  15.0   SSE   1.25  19.0   SSE   14.2   17.1   14.3  1020.6  0.00  0.00   0.004   0.000   22.4    55   12.9   22.2  10.10  .0740    114    1    100.0    5 
27/09/16   3:55   17.1   17.1   17.1    77   13.0  14.0   SSE   1.17  16.0   SSE   14.4   17.1   14.4  1020.6  0.00  0.00   0.004   0.000   22.3    55   12.9   22.1  10.11  .0741    117    1    100.0    5 
27/09/16   4:00   17.1   17.1   17.1    78   13.2  15.0   SSE   1.25  18.0   SSE   14.3   17.2   14.4  1020.5  0.00  0.00   0.004   0.000   22.3    55   12.9   22.1  10.11  .0741    117    1    100.0    5 
27/09/16   4:05   17.1   17.1   17.1    77   13.0  14.0   SSE   1.17  17.0   SSE   14.5   17.1   14.5  1020.5  0.00  0.00   0.004   0.000   22.3    55   12.9   22.1  10.11  .0741    117    1    100.0    5 
27/09/16   4:10   17.2   17.2   17.1    78   13.3  15.0   SSE   1.25  19.0   SSE   14.4   17.2   14.4  1020.5  0.00  0.00   0.004   0.000   22.3    55   12.9   22.1  10.11  .0741    117    1    100.0    5 
27/09/16   4:15   17.3   17.3   17.2    78   13.4  15.0   SSE   1.25  19.0   SSE   14.5   17.4   14.6  1020.5  0.00  0.00   0.004   0.000   22.3    55   12.9   22.1  10.11  .0741    117    1    100.0    5 
27/09/16   4:20   17.3   17.3   17.2    78   13.4  15.0   SSE   1.25  19.0   SSE   14.5   17.4   14.6  1020.5  0.00  0.00   0.004   0.000   22.3    55   12.8   22.0  10.11  .0741    117    1    100.0    5 
27/09/16   4:25   17.2   17.3   17.2    77   13.2  16.0   SSE   1.33  19.0   SSE   14.2   17.3   14.3  1020.4  0.00  0.00   0.004   0.000   22.3    55   12.8   22.0  10.11  .0741    117    1    100.0    5 
27/09/16   4:30   17.3   17.3   17.2    78   13.4  15.0   SSE   1.25  20.0   SSE   14.5   17.4   14.6  1020.5  0.00  0.00   0.004   0.000   22.2    55   12.7   21.9  10.11  .0741    116    1    100.0    5 
27/09/16   4:35   17.3   17.3   17.3    78   13.4  15.0   SSE   1.25  20.0   SSE   14.5   17.4   14.6  1020.5  0.00  0.00   0.004   0.000   22.2    56   13.0   22.0  10.31  .0741    117    1    100.0    5 
27/09/16   4:40   17.3   17.3   17.3    78   13.5  15.0   SSE   1.25  19.0   SSE   14.6   17.4   14.7  1020.6  0.00  0.00   0.003   0.000   22.2    56   13.0   22.0  10.31  .0741    116    1    100.0    5 
27/09/16   4:45   17.3   17.3   17.3    78   13.4  17.0   SSE   1.42  20.0   SSE   14.1   17.4   14.2  1020.6  0.00  0.00   0.004   0.000   22.2    56   13.0   22.0  10.31  .0741    115    1    100.0    5 
27/09/16   4:50   17.4   17.4   17.3    79   13.7  15.0   SSE   1.25  19.0   SSE   14.6   17.6   14.8  1020.6  0.00  0.00   0.003   0.000   22.2    56   13.0   22.0  10.31  .0741    116    1    100.0    5 
27/09/16   4:55   17.4   17.4   17.3    79   13.7  15.0   SSE   1.25  19.0   SSE   14.6   17.6   14.8  1020.7  0.00  0.00   0.003   0.000   22.2    56   13.0   22.0  10.31  .0741    116    1    100.0    5 
27/09/16   5:00   17.4   17.4   17.4    79   13.7  16.0   SSE   1.33  20.0   SSE   14.4   17.6   14.6  1020.7  0.00  0.00   0.003   0.000   22.2    56   13.0   22.0  10.31  .0741    117    1    100.0    5 
27/09/16   5:05   17.4   17.4   17.3    80   14.0  15.0   SSE   1.25  21.0   SSE   14.7   17.7   14.9  1020.8  0.00  0.00   0.003   0.000   22.2    56   13.0   21.9  10.31  .0741    115    1    100.0    5 
27/09/16   5:10   17.4   17.4   17.4    80   14.0  14.0   SSE   1.17  18.0   SSE   14.8   17.7   15.1  1020.9  0.00  0.00   0.003   0.000   22.2    56   13.0   21.9  10.31  .0741    116    1    100.0    5 
27/09/16   5:15   17.4   17.5   17.4    80   14.0  16.0   SSE   1.33  21.0   SSE   14.5   17.7   14.7  1020.9  0.00  0.00   0.003   0.000   22.2    56   13.0   21.9  10.31  .0741    116    1    100.0    5 
27/09/16   5:20   17.4   17.5   17.4    81   14.1  17.0   SSE   1.42  22.0   NNW   14.3   17.7   14.6  1020.9  0.00  0.00   0.003   0.000   22.2    56   13.0   21.9  10.31  .0741    117    1    100.0    5 
27/09/16   5:25   17.5   17.5   17.4    81   14.2  18.0     S   1.50  22.0   SSE   14.3   17.7   14.5  1020.8  0.00  0.00   0.003   0.000   22.2    56   13.0   21.9  10.31  .0741    117    1    100.0    5 
27/09/16   5:30   17.5   17.5   17.4    82   14.4  18.0     S   1.50  22.0     S   14.3   17.8   14.6  1020.8  0.00  0.00   0.003   0.000   22.2    57   13.2   21.9  10.47  .0741    117    1    100.0    5 
27/09/16   5:35   17.5   17.6   17.5    82   14.4  18.0     S   1.50  22.0   SSE   14.3   17.8   14.6  1020.9  0.00  0.00   0.003   0.000   22.1    57   13.2   21.9  10.48  .0741    116    1    100.0    5 
27/09/16   5:40   17.5   17.5   17.5    82   14.4  18.0     S   1.50  21.0     S   14.3   17.8   14.6  1020.8  0.00  0.00   0.003   0.000   22.1    57   13.2   21.9  10.48  .0741    116    1    100.0    5 
27/09/16   5:45   17.5   17.6   17.5    83   14.6  18.0     S   1.50  22.0     S   14.3   17.8   14.6  1020.8  0.00  0.00   0.003   0.000   22.1    57   13.2   21.9  10.48  .0741    116    1    100.0    5 
27/09/16   5:50   17.3   17.5   17.3    81   14.0  19.0     S   1.58  25.0   SSW   13.8   17.5   14.1  1020.8  0.00  0.00   0.004   0.000   22.1    57   13.2   21.9  10.48  .0741    117    1    100.0    5 
27/09/16   5:55   16.8   17.3   16.8    82   13.7  18.0   SSW   1.50  25.0     S   13.5   17.0   13.7  1020.8  0.00  0.00   0.005   0.000   22.1    57   13.2   21.9  10.48  .0741    117    1    100.0    5 
27/09/16   6:00   16.7   16.8   16.7    83   13.8  17.0   SSW   1.42  23.0   SSW   13.5   16.9   13.7  1020.8  0.00  0.00   0.006   0.000   22.1    57   13.1   21.8  10.48  .0741    116    1    100.0    5 
27/09/16   6:05   16.7   16.7   16.7    82   13.6  16.0   SSW   1.33  21.0   SSW   13.6   16.8   13.7  1020.8  0.00  0.00   0.006   0.000   22.1    57   13.1   21.8  10.48  .0741    117    1    100.0    5 
27/09/16   6:10   16.8   16.8   16.7    82   13.7  16.0   SSW   1.33  21.0   SSW   13.7   16.9   13.9  1020.8  0.00  0.00   0.005   0.000   22.1    57   13.1   21.8  10.48  .0741    116    1    100.0    5 
27/09/16   6:15   16.7   16.8   16.7    81   13.4  18.0     S   1.50  21.0     S   13.3   16.8   13.4  1020.9  0.00  0.00   0.006   0.000   22.1    57   13.1   21.8  10.48  .0741    117    1    100.0    5 
27/09/16   6:20   16.8   16.8   16.7    82   13.7  16.0     S   1.33  20.0   SSW   13.7   16.9   13.9  1021.0  0.00  0.00   0.005   0.000   22.1    57   13.1   21.8  10.48  .0741    115    1    100.0    5 
27/09/16   6:25   16.8   16.8   16.8    81   13.6  16.0     S   1.33  21.0   SSW   13.8   17.0   13.9  1021.0  0.00  0.00   0.005   0.000   22.0    57   13.1   21.7  10.49  .0742    117    1    100.0    5 
27/09/16   6:30   16.9   16.9   16.8    81   13.6  16.0     S   1.33  21.0     S   13.8   17.1   14.0  1021.0  0.00  0.00   0.005   0.000   22.0    57   13.1   21.7  10.49  .0742    117    1    100.0    5 
27/09/16   6:35   16.9   16.9   16.8    82   13.8  15.0     S   1.25  19.0   SSW   14.1   17.1   14.3  1020.9  0.00  0.00   0.005   0.000   22.0    57   13.1   21.7  10.49  .0742    116    1    100.0    5 
27/09/16   6:40   16.9   17.0   16.9    82   13.8  16.0   SSW   1.33  22.0   SSW   13.8   17.1   14.0  1021.0  0.00  0.00   0.005   0.000   22.0    58   13.4   21.8  10.69  .0741    117    1    100.0    5 
27/09/16   6:45   16.8   16.9   16.8    81   13.6  16.0   SSW   1.33  23.0   SSW   13.8   17.0   13.9  1020.9  0.00  0.00   0.005   0.000   21.9    58   13.3   21.7  10.69  .0742    117    1    100.0    5 
27/09/16   6:50   16.8   16.8   16.8    81   13.5  16.0     S   1.33  22.0     S   13.7   16.9   13.8  1021.0  0.00  0.00   0.005   0.000   21.9    58   13.3   21.7  10.69  .0742    117    1    100.0    5 
27/09/16   6:55   16.8   16.8   16.8    82   13.7  15.0     S   1.25  20.0   SSE   14.0   17.0   14.2  1021.0  0.00  0.00   0.005   0.000   21.9    58   13.3   21.7  10.69  .0742    117    1    100.0    5 
27/09/16   7:00   16.9   16.9   16.8    81   13.7  16.0     S   1.33  20.0   SSW   13.9   17.1   14.1  1021.0  0.00  0.00   0.005   0.000   21.9    58   13.3   21.6  10.69  .0742    117    1    100.0    5 
27/09/16   7:05   17.1   17.1   16.9    82   14.0  19.0     S   1.58  23.0     S   13.6   17.2   13.8  1021.0  0.00  0.00   0.004   0.000   21.9    58   13.3   21.6  10.69  .0742    117    1    100.0    5 
27/09/16   7:10   16.9   17.1   16.9    82   13.8  18.0     S   1.50  23.0     S   13.6   17.1   13.8  1021.0  0.00  0.00   0.005   0.000   21.9    58   13.3   21.6  10.69  .0742    117    1    100.0    5 
27/09/16   7:15   16.8   16.9   16.8    82   13.7  17.0     S   1.42  22.0   SSE   13.6   17.0   13.8  1021.0  0.00  0.00   0.005   0.000   21.9    58   13.3   21.6  10.69  .0742    117    1    100.0    5 
27/09/16   7:20   16.9   16.9   16.8    82   13.8  18.0     S   1.50  22.0     S   13.6   17.1   13.7  1021.0  0.00  0.00   0.005   0.000   21.9    58   13.3   21.6  10.69  .0742    117    1    100.0    5 
27/09/16   7:25   16.9   16.9   16.9    82   13.8  17.0     S   1.42  21.0   SSE   13.8   17.1   13.9  1021.1  0.00  0.00   0.005   0.000   21.9    58   13.3   21.6  10.69  .0742    115    1    100.0    5 
27/09/16   7:30   16.9   17.0   16.9    82   13.8  17.0     S   1.42  21.0   SSE   13.8   17.1   13.9  1021.1  0.00  0.00   0.005   0.000   21.9    58   13.3   21.6  10.69  .0742    116    1    100.0    5 
27/09/16   7:35   16.9   17.0   16.9    81   13.7  19.0     S   1.58  22.0     S   13.5   17.1   13.7  1021.1  0.00  0.00   0.005   0.000   21.8    58   13.2   21.5  10.70  .0742    115    1    100.0    5 
27/09/16   7:40   17.1   17.1   16.9    80   13.6  18.0     S   1.50  23.0     S   13.7   17.2   13.9  1021.1  0.00  0.00   0.004   0.000   21.9    58   13.3   21.6  10.69  .0742    116    1    100.0    5 
27/09/16   7:45   17.2   17.2   17.1    81   13.9  18.0     S   1.50  22.0     S   13.9   17.3   14.1  1021.2  0.00  0.00   0.004   0.000   21.8    58   13.2   21.5  10.70  .0742    118    1    100.0    5 
27/09/16   7:50   17.2   17.2   17.2    80   13.7  19.0     S   1.58  24.0     S   13.7   17.3   13.9  1021.1  0.00  0.00   0.004   0.000   21.8    58   13.2   21.5  10.70  .0742    116    1    100.0    5 
27/09/16   7:55   17.2   17.2   17.2    80   13.7  18.0     S   1.50  21.0     S   13.9   17.4   14.1  1021.0  0.00  0.00   0.004   0.000   21.8    58   13.2   21.5  10.70  .0742    116    1    100.0    5 
27/09/16   8:00   17.3   17.3   17.2    80   13.8  19.0     S   1.58  24.0     S   13.8   17.4   14.0  1021.1  0.00  0.00   0.004   0.000   21.8    58   13.2   21.5  10.70  .0742    117    1    100.0    5 
27/09/16   8:05   17.3   17.3   17.3    80   13.8  19.0     S   1.58  25.0     S   13.9   17.5   14.1  1021.1  0.00  0.00   0.003   0.000   21.8    58   13.2   21.5  10.70  .0742    117    1    100.0    5 
27/09/16   8:10   17.4   17.4   17.3    80   13.9  20.0     S   1.67  24.0     S   13.8   17.6   14.1  1021.1  0.00  0.00   0.003   0.000   21.8    58   13.2   21.5  10.70  .0742    117    1    100.0    5 
27/09/16   8:15   17.3   17.4   17.3    79   13.7  20.0     S   1.67  25.0     S   13.8   17.5   13.9  1021.1  0.00  0.00   0.003   0.000   21.8    58   13.2   21.5  10.70  .0742    117    1    100.0    5 
27/09/16   8:20   17.4   17.4   17.3    81   14.1  19.0     S   1.58  23.0     S   14.0   17.6   14.2  1021.1  0.00  0.00   0.003   0.000   21.8    58   13.2   21.5  10.70  .0742    117    1    100.0    5 
27/09/16   8:25   17.3   17.4   17.3    80   13.8  19.0     S   1.58  22.0     S   13.9   17.5   14.1  1021.1  0.00  0.00   0.003   0.000   21.8    59   13.4   21.5  10.90  .0742    117    1    100.0    5 
27/09/16   8:30   17.4   17.4   17.3    81   14.1  20.0     S   1.67  23.0     S   13.9   17.7   14.1  1021.0  0.00  0.00   0.003   0.000   21.8    59   13.5   21.6  10.90  .0742    117    1    100.0    5 
27/09/16   8:35   17.5   17.5   17.4    80   14.0  21.0     S   1.75  24.0     S   13.9   17.7   14.1  1021.0  0.00  0.00   0.003   0.000   21.8    59   13.5   21.6  10.90  .0742    117    1    100.0    5 
27/09/16   8:40   17.4   17.5   17.4    79   13.8  23.0     S   1.92  28.0     S   13.6   17.6   13.8  1021.0  0.00  0.00   0.003   0.000   21.9    59   13.5   21.7  10.89  .0742    115    1    100.0    5 
27/09/16   8:45   17.6   17.6   17.4    80   14.1  21.0     S   1.75  26.0     S   13.9   17.8   14.2  1021.1  0.00  0.00   0.003   0.000   21.9    59   13.5   21.7  10.89  .0742    117    1    100.0    5 
27/09/16   8:50   17.6   17.6   17.6    81   14.3  19.0     S   1.58  24.0     S   14.2   17.8   14.4  1021.2  0.00  0.00   0.003   0.000   21.9    60   13.8   21.8  11.02  .0741    118    1    100.0    5 
27/09/16   8:55   17.4   17.6   17.4    82   14.3  20.0     S   1.67  25.0   SSW   13.8   17.6   14.1  1021.2  0.00  0.00   0.003   0.000   21.9    60   13.8   21.8  11.02  .0741    117    1    100.0    5 
27/09/16   9:00   17.3   17.3   17.3    82   14.2  20.0     S   1.67  25.0     S   13.7   17.5   13.9  1021.3  0.00  0.00   0.004   0.000   22.0    60   13.9   21.8  11.02  .0741    117    1    100.0    5 
27/09/16   9:05   17.3   17.3   17.3    82   14.2  18.0     S   1.50  21.0     S   14.0   17.5   14.2  1021.3  0.00  0.00   0.004   0.000   22.1    60   13.9   21.9  11.02  .0741    116    1    100.0    5 
27/09/16   9:10   17.3   17.3   17.3    82   14.2  17.0     S   1.42  21.0     S   14.1   17.5   14.3  1021.4  0.00  0.00   0.004   0.000   22.1    60   13.9   21.9  11.02  .0741    117    1    100.0    5 
27/09/16   9:15   17.3   17.3   17.3    82   14.2  18.0     S   1.50  21.0     S   14.1   17.6   14.3  1021.3  0.00  0.00   0.003   0.000   22.1    60   14.0   22.0  11.01  .0741    114    1    100.0    5 
27/09/16   9:20   17.4   17.4   17.3    82   14.3  18.0     S   1.50  23.0   SSE   14.2   17.7   14.4  1021.4  0.00  0.00   0.003   0.000   22.1    60   14.0   22.0  11.01  .0741    117    1    100.0    5 
27/09/16   9:25   17.4   17.5   17.3    81   14.1  20.0     S   1.67  27.0     S   13.8   17.6   14.1  1021.5  0.00  0.00   0.003   0.000   22.1    60   14.0   22.0  11.01  .0741    117    1    100.0    5 
27/09/16   9:30   17.3   17.3   17.3    82   14.2  21.0     S   1.75  24.0     S   13.7   17.6   13.9  1021.4  0.00  0.00   0.003   0.000   22.2    60   14.0   22.1  11.01  .0741    116    1    100.0    5 
27/09/16   9:35   17.4   17.4   17.3    83   14.5  20.0     S   1.67  27.0     S   13.9   17.7   14.2  1021.4  0.00  0.00   0.003   0.000   22.2    60   14.1   22.2  11.01  .0741    116    1    100.0    5 
27/09/16   9:40   17.3   17.4   17.3    82   14.2  20.0     S   1.67  23.0     S   13.8   17.6   14.0  1021.4  0.00  0.00   0.003   0.000   22.2    59   13.8   22.1  10.87  .0741    116    1    100.0    5 
27/09/16   9:45   17.4   17.4   17.3    83   14.5  19.0     S   1.58  27.0   SSE   14.1   17.7   14.3  1021.5  0.00  0.00   0.003   0.000   22.2    59   13.8   22.1  10.87  .0741    115    1    100.0    5 
27/09/16   9:50   17.5   17.5   17.4    83   14.6  21.0     S   1.75  26.0     S   13.9   17.8   14.2  1021.6  0.00  0.00   0.003   0.000   22.2    59   13.8   22.1  10.87  .0741    117    1    100.0    5 
27/09/16   9:55   17.5   17.5   17.5    83   14.6  19.0     S   1.58  24.0     S   14.1   17.8   14.4  1021.5  0.00  0.00   0.003   0.000   22.2    59   13.8   22.1  10.87  .0741    117    1    100.0    5 
27/09/16  10:00   17.4   17.5   17.4    82   14.3  21.0     S   1.75  26.0     S   13.8   17.7   14.0  1021.5  0.00  0.00   0.003   0.000   22.3    59   13.9   22.2  10.87  .0741    116    1    100.0    5 
27/09/16  10:05   17.5   17.5   17.4    82   14.4  22.0     S   1.83  27.0     S   13.8   17.8   14.1  1021.5  0.00  0.00   0.003   0.000   22.3    59   13.9   22.2  10.87  .0741    117    1    100.0    5 
27/09/16  10:10   17.5   17.6   17.5    82   14.4  22.0     S   1.83  28.0   SSE   13.8   17.8   14.1  1021.7  0.00  0.00   0.003   0.000   22.3    59   13.9   22.2  10.87  .0741    115    1    100.0    5 
27/09/16  10:15   17.5   17.6   17.5    83   14.6  20.0     S   1.67  28.0   SSE   14.0   17.8   14.3  1021.8  0.00  0.00   0.003   0.000   22.3    59   13.9   22.2  10.87  .0741    117    1    100.0    5 
27/09/16  10:20   17.5   17.6   17.5    84   14.8  19.0     S   1.58  23.0   SSE   14.1   17.8   14.4  1021.7  0.00  0.00   0.003   0.000   22.3    59   13.9   22.2  10.87  .0741    117    1    100.0    5 
27/09/16  10:25   17.4   17.5   17.4    84   14.7  21.0     S   1.75  27.0     S   13.8   17.7   14.1  1021.8  0.00  0.00   0.003   0.000   22.3    59   13.9   22.2  10.87  .0741    117    1    100.0    5 
27/09/16  10:30   17.4   17.4   17.4    84   14.7  20.0     S   1.67  25.0   SSE   13.9   17.7   14.2  1021.8  0.00  0.00   0.003   0.000   22.3    60   14.2   22.3  11.01  .0741    116    1    100.0    5 
27/09/16  10:35   17.4   17.5   17.4    84   14.7  19.0     S   1.58  24.0     S   14.1   17.7   14.3  1021.8  0.00  0.00   0.003   0.000   22.3    60   14.2   22.3  11.01  .0741    116    1    100.0    5 
27/09/16  10:40   17.3   17.4   17.3    84   14.6  22.0     S   1.83  26.0    SW   13.6   17.6   13.8  1021.9  0.00  0.00   0.003   0.000   22.3    60   14.2   22.3  11.01  .0741    116    1    100.0    5 
27/09/16  10:45   17.3   17.3   17.3    85   14.8  20.0     S   1.67  26.0     S   13.8   17.6   14.1  1021.9  0.00  0.00   0.003   0.000   22.3    60   14.2   22.3  11.01  .0741    116    1    100.0    5 
27/09/16  10:50   17.3   17.3   17.3    85   14.7  22.0     S   1.83  26.0     S   13.5   17.6   13.8  1021.9  0.00  0.00   0.004   0.000   22.3    60   14.2   22.3  11.01  .0741    117    1    100.0    5 
27/09/16  10:55   17.3   17.3   17.3    85   14.8  20.0     S   1.67  25.0   SSW   13.8   17.6   14.1  1021.9  0.00  0.00   0.003   0.000   22.3    60   14.2   22.3  11.01  .0741    118    1    100.0    5 
27/09/16  11:00   17.3   17.4   17.3    85   14.8  21.0     S   1.75  26.0     S   13.7   17.6   13.9  1022.0  0.00  0.00   0.003   0.000   22.3    60   14.2   22.3  11.01  .0741    116    1    100.0    5 
27/09/16  11:05   17.4   17.4   17.3    85   14.8  21.0     S   1.75  27.0     S   13.7   17.7   14.0  1021.8  0.00  0.00   0.003   0.000   22.3    60   14.2   22.3  11.01  .0741    117    1    100.0    5 
27/09/16  11:10   17.4   17.4   17.4    85   14.9  21.0     S   1.75  27.0     S   13.8   17.7   14.1  1021.9  0.00  0.00   0.003   0.000   22.4    60   14.2   22.4  11.00  .0740    112    1     98.2    5 
27/09/16  11:15   17.4   17.5   17.3    85   14.8  21.0     S   1.75  25.0     S   13.7   17.7   14.0  1021.7  0.00  0.00   0.003   0.000   22.3    60   14.2   22.3  11.01  .0740    117    1    100.0    5 
27/09/16  11:20   17.3   17.4   17.3    86   15.0  22.0     S   1.83  27.0     S   13.6   17.7   13.9  1021.8  0.00  0.00   0.003   0.000   22.4    60   14.2   22.4  11.00  .0740    116    1    100.0    5 
27/09/16  11:25   17.5   17.5   17.3    86   15.1  21.0     S   1.75  28.0     S   13.9   17.8   14.2  1021.8  0.00  0.00   0.003   0.000   22.4    60   14.2   22.4  11.00  .0740    115    1    100.0    5 
27/09/16  11:30   17.5   17.6   17.4    86   15.1  21.0     S   1.75  26.0     S   13.9   17.8   14.2  1021.9  0.00  0.00   0.003   0.000   22.4    60   14.2   22.4  11.00  .0740    117    1    100.0    5 
27/09/16  11:35   17.6   17.6   17.6    86   15.2  19.0     S   1.58  25.0     S   14.2   17.9   14.5  1021.9  0.00  0.00   0.003   0.000   22.4    60   14.2   22.4  11.00  .0740    115    1    100.0    5 
27/09/16  11:40   17.5   17.6   17.5    86   15.1  21.0     S   1.75  26.0     S   13.9   17.8   14.2  1021.9  0.00  0.00   0.003   0.000   22.4    60   14.2   22.4  11.00  .0740    117    1    100.0    5 
27/09/16  11:45   17.6   17.6   17.5    86   15.2  21.0     S   1.75  27.0     S   13.9   17.9   14.3  1022.0  0.00  0.00   0.003   0.000   22.4    60   14.2   22.4  11.00  .0741    116    1    100.0    5 
27/09/16  11:50   17.6   17.6   17.6    87   15.4  20.0     S   1.67  25.0     S   14.1   17.9   14.4  1022.1  0.00  0.00   0.003   0.000   22.4    60   14.2   22.4  11.00  .0741    117    1    100.0    5 
27/09/16  11:55   17.5   17.6   17.5    88   15.5  21.0     S   1.75  26.0   SSW   13.9   17.9   14.3  1022.0  0.00  0.00   0.003   0.000   22.4    60   14.2   22.4  11.00  .0741    116    1    100.0    5 
27/09/16  12:00   17.3   17.5   17.3    88   15.3  20.0   SSW   1.67  26.0   SSW   13.8   17.7   14.1  1022.1  0.00  0.00   0.003   0.000   22.4    61   14.5   22.4  11.16  .0740    118    1    100.0    5 
27/09/16  12:05   17.3   17.3   17.3    89   15.5  19.0     S   1.58  25.0     S   13.9   17.7   14.3  1022.2  0.00  0.00   0.003   0.000   22.4    61   14.5   22.6  11.15  .0740    117    1    100.0    5 
27/09/16  12:10   17.3   17.3   17.3    89   15.4  19.0     S   1.58  25.0     S   13.8   17.7   14.2  1022.1  0.00  0.00   0.004   0.000   22.4    61   14.5   22.6  11.15  .0740    116    1    100.0    5 
27/09/16  12:15   17.2   17.3   17.2    89   15.4  20.0     S   1.67  25.0     S   13.7   17.6   14.1  1022.1  0.00  0.00   0.004   0.000   22.5    61   14.6   22.6  11.15  .0740    116    1    100.0    5 
27/09/16  12:20   17.2   17.2   17.2    90   15.6  20.0     S   1.67  26.0     S   13.7   17.6   14.1  1022.0  0.00  0.00   0.004   0.000   22.5    61   14.6   22.6  11.15  .0740    117    1    100.0    5 
27/09/16  12:25   17.2   17.2   17.2    90   15.5  19.0     S   1.58  23.0   SSW   13.7   17.6   14.1  1022.0  0.00  0.00   0.004   0.000   22.6    61   14.7   22.7  11.15  .0740    116    1    100.0    5 
27/09/16  12:30   17.1   17.2   17.1    91   15.6  19.0     S   1.58  24.0     S   13.7   17.5   14.1  1022.2  0.00  0.00   0.004   0.000   22.6    61   14.7   22.7  11.15  .0740    116    1    100.0    5 
27/09/16  12:35   17.1   17.1   17.0    91   15.6  19.0     S   1.58  23.0     S   13.6   17.4   14.0  1022.2  0.00  0.00   0.004   0.000   22.6    61   14.7   22.7  11.15  .0740    115    1    100.0    5 
27/09/16  12:40   16.9   17.1   16.9    92   15.6  19.0     S   1.58  23.0   SSW   13.5   17.3   13.9  1022.3  0.00  0.00   0.005   0.000   22.6    61   14.7   22.7  11.15  .0740    117    1    100.0    5 
27/09/16  12:45   16.9   16.9   16.9    93   15.7  19.0     S   1.58  23.0   SSE   13.4   17.3   13.8  1022.3  0.00  0.00   0.005   0.000   22.6    61   14.7   22.8  11.14  .0740    117    1    100.0    5 
27/09/16  12:50   16.9   16.9   16.9    93   15.7  18.0     S   1.50  24.0     S   13.6   17.3   13.9  1022.3  0.00  0.00   0.005   0.000   22.6    61   14.7   22.8  11.14  .0740    117    1    100.0    5 
27/09/16  12:55   16.9   16.9   16.9    93   15.7  19.0     S   1.58  24.0     S   13.4   17.3   13.8  1022.3  0.00  0.00   0.005   0.000   22.6    61   14.7   22.8  11.14  .0740    117    1    100.0    5 
27/09/16  13:00   16.9   16.9   16.9    93   15.7  17.0   SSW   1.42  21.0   SSW   13.7   17.3   14.1  1022.2  0.00  0.00   0.005   0.000   22.6    61   14.7   22.8  11.14  .0740    118    1    100.0    5 
27/09/16  13:05   16.9   16.9   16.9    94   16.0  17.0   SSW   1.42  21.0   SSW   13.8   17.3   14.2  1022.3  0.00  0.00   0.005   0.000   22.6    62   15.0   22.8  11.30  .0740    117    1    100.0    5 
27/09/16  13:10   16.9   16.9   16.9    94   16.0  18.0   SSW   1.50  22.0     S   13.6   17.3   14.0  1022.3  0.00  0.00   0.005   0.000   22.6    62   15.0   22.8  11.30  .0740    117    1    100.0    5 
27/09/16  13:15   17.0   17.0   16.9    94   16.0  18.0   SSW   1.50  22.0   SSW   13.7   17.4   14.1  1022.4  0.00  0.00   0.005   0.000   22.6    62   15.0   22.8  11.30  .0740    115    1    100.0    5 
27/09/16  13:20   17.1   17.1   17.0    94   16.1  17.0   SSW   1.42  22.0   SSW   13.9   17.4   14.3  1022.4  0.00  0.00   0.004   0.000   22.6    62   15.0   22.8  11.30  .0740    117    1    100.0    5 
27/09/16  13:25   17.1   17.2   17.1    95   16.3  17.0   SSW   1.42  22.0   SSW   13.9   17.6   14.4  1022.3  0.00  0.00   0.004   0.000   22.7    62   15.0   22.9  11.29  .0739    117    1    100.0    5 
27/09/16  13:30   17.2   17.2   17.1    94   16.2  17.0   SSW   1.42  21.0     S   14.0   17.6   14.4  1022.2  0.00  0.00   0.004   0.000   22.7    62   15.0   22.9  11.29  .0739    117    1    100.0    5 
27/09/16  13:35   17.2   17.2   17.1    94   16.2  17.0   SSW   1.42  21.0    SW   14.0   17.6   14.4  1022.2  0.00  0.00   0.004   0.000   22.7    62   15.0   22.9  11.29  .0739    117    1    100.0    5 
27/09/16  13:40   17.2   17.2   17.2    95   16.4  17.0   SSW   1.42  22.0   SSW   14.0   17.6   14.4  1022.2  0.00  0.00   0.004   0.000   22.7    62   15.0   22.9  11.29  .0739    116    1    100.0    5 
27/09/16  13:45   17.2   17.2   17.2    95   16.4  16.0   SSW   1.33  20.0   SSW   14.2   17.7   14.7  1022.2  0.00  0.00   0.004   0.000   22.7    62   15.0   22.9  11.29  .0739    117    1    100.0    5 
27/09/16  13:50   17.2   17.2   17.2    95   16.4  17.0   SSW   1.42  21.0    SW   14.1   17.7   14.5  1022.2  0.00  0.00   0.004   0.000   22.7    62   15.1   23.0  11.29  .0739    116    1    100.0    5 
27/09/16  13:55   17.2   17.2   17.2    95   16.4  17.0   SSW   1.42  22.0   SSW   14.0   17.6   14.4  1022.3  0.00  0.00   0.004   0.000   22.7    62   15.1   23.0  11.29  .0739    117    1    100.0    5 
27/09/16  14:00   17.2   17.2   17.2    95   16.4  17.0   SSW   1.42  21.0   SSW   14.1   17.7   14.5  1022.3  0.00  0.00   0.004   0.000   22.7    62   15.1   23.0  11.29  .0739    117    1    100.0    5 
27/09/16  14:05   17.3   17.3   17.2    95   16.5  16.0   SSW   1.33  21.0   SSW   14.3   17.7   14.7  1022.3  0.00  0.00   0.004   0.000   22.7    63   15.3   23.0  11.49  .0739    118    1    100.0    5 
27/09/16  14:10   17.3   17.3   17.3    95   16.5  17.0   SSW   1.42  21.0   SSW   14.2   17.8   14.6  1022.4  0.00  0.00   0.003   0.000   22.8    63   15.4   23.1  11.49  .0739    117    1    100.0    5 
27/09/16  14:15   17.3   17.3   17.3    95   16.5  16.0   SSW   1.33  20.0    SW   14.3   17.8   14.8  1022.3  0.00  0.00   0.003   0.000   22.7    63   15.3   23.0  11.49  .0739    117    1    100.0    5 
27/09/16  14:20   17.4   17.4   17.3    95   16.6  16.0   SSW   1.33  21.0    SW   14.4   17.9   14.9  1022.3  0.00  0.00   0.003   0.000   22.8    63   15.4   23.1  11.49  .0739    117    1    100.0    5 
27/09/16  14:25   17.4   17.4   17.4    95   16.6  17.0   SSW   1.42  21.0   SSW   14.3   17.9   14.8  1022.3  0.00  0.00   0.003   0.000   22.8    63   15.4   23.1  11.49  .0739    117    1    100.0    5 
27/09/16  14:30   17.5   17.5   17.4    95   16.7  16.0   SSW   1.33  19.0   SSW   14.6   18.0   15.1  1022.3  0.00  0.00   0.003   0.000   22.8    63   15.4   23.2  11.49  .0739    117    1    100.0    5 
27/09/16  14:35   17.5   17.6   17.5    95   16.7  14.0   SSW   1.17  17.0   SSW   14.9   18.0   15.4  1022.3  0.00  0.00   0.003   0.000   22.8    63   15.4   23.2  11.49  .0739    117    1    100.0    5 
27/09/16  14:40   17.6   17.6   17.5    95   16.7  13.0   SSW   1.08  16.0   SSW   15.2   18.1   15.7  1022.2  0.00  0.00   0.003   0.000   22.8    63   15.4   23.2  11.49  .0739    117    1    100.0    5 
27/09/16  14:45   17.6   17.6   17.6    95   16.7  15.0   SSW   1.25  18.0   SSW   14.8   18.1   15.3  1022.3  0.00  0.00   0.003   0.000   22.9    63   15.5   23.3  11.49  .0738    116    1    100.0    5 
27/09/16  14:50   17.6   17.6   17.6    95   16.8  16.0   SSW   1.33  19.0   SSW   14.7   18.1   15.2  1022.3  0.00  0.00   0.003   0.000   22.9    63   15.5   23.3  11.49  .0738    117    1    100.0    5 
27/09/16  14:55   17.7   17.7   17.6    95   16.9  16.0   SSW   1.33  18.0   SSW   14.8   18.2   15.3  1022.3  0.00  0.00   0.002   0.000   22.9    63   15.5   23.3  11.49  .0738    117    1    100.0    5 
27/09/16  15:00   17.8   17.8   17.7    95   17.0  15.0   SSW   1.25  19.0   SSW   15.1   18.3   15.6  1022.1  0.00  0.00   0.002   0.000   22.9    64   15.7   23.3  11.65  .0738    117    1    100.0    5 
27/09/16  15:05   17.8   17.8   17.7    95   17.0  16.0   SSW   1.33  20.0   SSW   14.9   18.3   15.4  1022.0  0.00  0.00   0.002   0.000   22.9    64   15.7   23.3  11.65  .0738    117    1    100.0    5 
27/09/16  15:10   17.8   17.8   17.8    95   17.0  14.0   SSW   1.17  18.0   SSW   15.2   18.3   15.8  1022.0  0.00  0.00   0.002   0.000   22.9    64   15.8   23.4  11.65  .0738    117    1    100.0    5 
27/09/16  15:15   17.8   17.8   17.8    94   16.8  15.0   SSW   1.25  20.0   SSW   15.1   18.3   15.6  1022.1  0.00  0.00   0.002   0.000   22.9    64   15.8   23.4  11.65  .0738    117    1    100.0    5 
27/09/16  15:20   17.7   17.8   17.7    95   16.9  15.0   SSW   1.25  18.0    SW   15.0   18.3   15.6  1022.2  0.00  0.00   0.002   0.000   22.9    64   15.8   23.4  11.65  .0738    117    1    100.0    5 
27/09/16  15:25   17.7   17.7   17.7    95   16.9  15.0   SSW   1.25  17.0   SSW   15.0   18.3   15.6  1022.3  0.00  0.00   0.002   0.000   23.0    64   15.8   23.4  11.65  .0738    117    1    100.0    5 
27/09/16  15:30   17.7   17.7   17.7    95   16.9  14.0    SW   1.17  17.0   SSW   15.2   18.3   15.7  1022.2  0.00  0.00   0.002   0.000   23.0    64   15.8   23.4  11.65  .0738    117    1    100.0    5 
27/09/16  15:35   17.9   17.9   17.7    95   17.1  12.0    SW   1.00  16.0   SSW   15.8   18.4   16.4  1022.3  0.00  0.00   0.002   0.000   23.0    64   15.8   23.4  11.65  .0738    116    1    100.0    5 
27/09/16  15:40   17.9   17.9   17.9    94   16.9  14.0   SSW   1.17  18.0   SSW   15.3   18.4   15.9  1022.2  0.00  0.00   0.002   0.000   23.0    64   15.8   23.4  11.65  .0738    116    1    100.0    5 
27/09/16  15:45   17.9   17.9   17.8    94   16.9  14.0   SSW   1.17  18.0    SW   15.3   18.4   15.9  1022.4  0.00  0.00   0.002   0.000   23.1    64   15.9   23.6  11.65  .0738    117    1    100.0    5 
27/09/16  15:50   17.9   17.9   17.9    94   17.0  13.0    SW   1.08  17.0    SW   15.7   18.5   16.2  1022.4  0.00  0.00   0.001   0.000   23.1    64   15.9   23.6  11.65  .0738    117    1    100.0    5 
27/09/16  15:55   17.9   17.9   17.9    93   16.7  14.0   SSW   1.17  18.0   SSW   15.3   18.4   15.9  1022.4  0.00  0.00   0.002   0.000   23.1    64   15.9   23.6  11.65  .0738    117    1    100.0    5 
27/09/16  16:00   17.8   17.9   17.8    93   16.6  13.0   SSW   1.08  18.0   SSW   15.4   18.3   15.9  1022.4  0.00  0.00   0.002   0.000   23.1    65   16.2   23.7  11.85  .0737    117    1    100.0    5 
27/09/16  16:05   17.7   17.8   17.7    94   16.7  13.0    SW   1.08  17.0    SW   15.4   18.2   15.9  1022.3  0.00  0.00   0.002   0.000   23.2    65   16.2   23.7  11.85  .0737    117    1    100.0    5 
27/09/16  16:10   17.6   17.7   17.6    94   16.6  12.0    SW   1.00  15.0    SW   15.6   18.1   16.1  1022.2  0.00  0.00   0.003   0.000   23.2    64   16.0   23.7  11.65  .0737    116    1    100.0    5 
27/09/16  16:15   17.6   17.6   17.6    95   16.7  11.0    SW   0.92  18.0   SSW   15.8   18.1   16.3  1022.2  0.00  0.00   0.003   0.000   23.2    64   16.0   23.8  11.65  .0737    117    1    100.0    5 
27/09/16  16:20   17.6   17.6   17.6    95   16.7  15.0   SSW   1.25  18.0   SSW   14.8   18.1   15.3  1022.2  0.00  0.00   0.003   0.000   23.2    64   16.0   23.8  11.65  .0737    117    1    100.0    5 
27/09/16  16:25   17.4   17.6   17.4    95   16.6  14.0   SSW   1.17  19.0    SW   14.8   17.9   15.3  1022.3  0.00  0.00   0.003   0.000   23.3    64   16.1   23.9  11.65  .0737    115    1    100.0    5 
27/09/16  16:30   17.5   17.5   17.4    95   16.7  14.0   SSW   1.17  17.0    SW   14.9   18.0   15.4  1022.4  0.00  0.00   0.003   0.000   23.3    64   16.1   23.9  11.65  .0737    117    1    100.0    5 
27/09/16  16:35   17.5   17.6   17.5    95   16.7  14.0   SSW   1.17  16.0   SSW   14.9   18.0   15.4  1022.5  0.00  0.00   0.003   0.000   23.3    64   16.1   23.9  11.65  .0737    116    1    100.0    5 
27/09/16  16:40   17.5   17.6   17.5    95   16.7  13.0   SSW   1.08  17.0    SW   15.2   18.0   15.7  1022.4  0.00  0.00   0.003   0.000   23.3    64   16.1   23.9  11.65  .0737    117    1    100.0    5 
27/09/16  16:45   17.5   17.5   17.4    95   16.7  12.0   SSW   1.00  18.0   SSW   15.4   18.0   15.9  1022.4  0.00  0.00   0.003   0.000   23.3    64   16.1   23.9  11.65  .0737    117    1    100.0    5 
27/09/16  16:50   17.6   17.6   17.4    95   16.7  14.0    SW   1.17  18.0    SW   15.0   18.1   15.5  1022.4  0.00  0.00   0.003   0.000   23.3    63   15.9   23.9  11.47  .0737    117    1    100.0    5 
27/09/16  16:55   17.6   17.6   17.6    95   16.8  12.0    SW   1.00  16.0   SSW   15.6   18.1   16.1  1022.4  0.00  0.00   0.003   0.000   23.4    63   15.9   23.9  11.47  .0737    117    1    100.0    5 
27/09/16  17:00   17.6   17.6   17.6    95   16.7  12.0    SW   1.00  17.0    SW   15.5   18.1   16.0  1022.5  0.00  0.00   0.003   0.000   23.4    63   15.9   23.9  11.47  .0737    117    1    100.0    5 
27/09/16  17:05   17.6   17.6   17.6    95   16.7  12.0    SW   1.00  16.0    SW   15.5   18.1   16.0  1022.5  0.00  0.00   0.003   0.000   23.4    63   15.9   23.9  11.47  .0737    116    1    100.0    5 
27/09/16  17:10   17.5   17.6   17.5    94   16.5  13.0    SW   1.08  19.0    SW   15.2   18.0   15.7  1022.5  0.00  0.00   0.003   0.000   23.4    63   15.9   23.9  11.47  .0737    116    1    100.0    5 
27/09/16  17:15   17.3   17.4   17.3    94   16.4  16.0    SW   1.33  20.0    SW   14.3   17.8   14.8  1022.5  0.00  0.00   0.003   0.000   23.4    63   15.9   23.9  11.47  .0737    117    1    100.0    5 
27/09/16  17:20   17.2   17.3   17.2    95   16.4  15.0    SW   1.25  20.0    SW   14.4   17.7   14.9  1022.6  0.00  0.00   0.004   0.000   23.4    63   15.9   23.9  11.47  .0737    117    1    100.0    5 
27/09/16  17:25   17.3   17.3   17.2    95   16.5  14.0    SW   1.17  17.0    SW   14.7   17.7   15.1  1022.6  0.00  0.00   0.004   0.000   23.4    63   15.9   23.9  11.47  .0737    116    1    100.0    5 
27/09/16  17:30   17.3   17.3   17.3    95   16.5  12.0    SW   1.00  15.0    SW   15.2   17.8   15.7  1022.5  0.00  0.00   0.003   0.000   23.4    64   16.2   24.1  11.65  .0737    117    1    100.0    5 
27/09/16  17:35   17.4   17.4   17.3    95   16.6  13.0    SW   1.08  16.0    SW   15.1   17.9   15.6  1022.4  0.00  0.00   0.003   0.000   23.4    64   16.2   24.1  11.65  .0737    116    1    100.0    5 
27/09/16  17:40   17.4   17.4   17.4    94   16.4  13.0    SW   1.08  16.0    SW   15.0   17.8   15.4  1022.5  0.00  0.00   0.003   0.000   23.4    64   16.2   24.1  11.65  .0737    116    1    100.0    5 
27/09/16  17:45   17.4   17.4   17.4    94   16.5  13.0    SW   1.08  16.0   WSW   15.1   17.9   15.6  1022.7  0.00  0.00   0.003   0.000   23.4    64   16.2   24.1  11.65  .0737    117    1    100.0    5 
27/09/16  17:50   17.5   17.5   17.4    94   16.5  12.0    SW   1.00  15.0   WSW   15.4   18.0   15.9  1022.7  0.00  0.00   0.003   0.000   23.4    64   16.2   24.1  11.65  .0737    116    1    100.0    5 
27/09/16  17:55   17.4   17.6   17.4    94   16.5  12.0    SW   1.00  15.0    SW   15.3   17.9   15.8  1022.8  0.00  0.00   0.003   0.000   23.4    64   16.2   24.1  11.65  .0737    116    1    100.0    5 
27/09/16  18:00   17.5   17.5   17.4    94   16.5  11.0    SW   0.92  14.0    SW   15.8   18.0   16.3  1022.7  0.00  0.00   0.003   0.000   23.4    64   16.2   24.1  11.65  .0737    116    1    100.0    5 
104444